| State | Arkansas | Latest | Poor (65 cfs) | |
| River | Caddo River | Rating | Observed | Estimated |
| Updated | 2026-05-05 9:45 (46 minutes ago) | Flood - The river is flooding. Obstacles can be treacherous or deadly. The river should be avoided at this stage for casual trips and definitely for the inexperienced. Trips should be attempted only with protective gear and equipment.Flood | (none) | 953 |
| Discharge | 65 cfs (median: 190 cfs) | High - The river is high and potentially dangerous, especially for the young and / or inexperienced. Normal stream obstacles are sometimes difficult to navigate. Extended distances can be attempted, but canoe travel may not be advisable.High | (none) | 350 |
| Height | 5.18 feet | Good - Conditions are ideal for a canoe or kayak. Boats typically will drag on fewer than one-quarter of riffles, if at all, and portages are unnecessary or rare. Normal float lengths can be attempted without a problem.Good | (none) | 174 |
| Trend | Steady (falling over 24 hours) | Low - River is low but can still be floated. Some riffles are okay but most come with significant dragging and might need a portage. Float lengths should be reduced to accommodate low flow, dragging, and portages.Low | (none) | 109 |
| USGS | USGS Site ( Duck Duck Go Maps) | Poor - River is too low to float comfortably. Most or all riffles will drag or must be portaged and some obstacles (such as slick shelf rock) cause undue problems. Avoid the river at this stage for casual paddling trips.Poor | (none) | 50 |
A total of 1 rows are displayed.
| Miles | 3.3 |
| Trips | 1 |
| People | 4 |
| Dates | 1 |
| Years | 1 |
| Months | 1 |
| Rows | 1 |
| Sources | 1 |
BLG - Bluegill
CCF - Channel Catfish
CP - Chain Pickerel
FWD - Freshwater Drum
GSF - Green Sunfish
KSB - Kentucky Spotted Bass
LMB - Largemouth Bass
LSF - Longear Sunfish
RB - Rock Bass / Goggle Eye
RSF - Redear Sunfish
RT - Rainbow Trout
SMB - Smallmouth Bass
WB - White Bass
WF - Whitefish
WL - WalleyeThe classic River Trips application is still available for use. It is updated with the new system using a data retrofit. It is no longer maintained. The original River Trips application is no longer updated (as of 1 Dec 2016) but can be checked for errors or for the condition of the data before it was converted to the new system.
| Observation | Height | Discharge | Maximum Discharge | Minimum Discharge | Mean Discharge | P05 | P10 | P20 | P25 | P50 (Median) | P75 | P80 | P90 | P95 |
|---|---|---|---|---|---|---|---|---|---|---|---|---|---|---|
| 2026-05-05 09:45 | 5.18 | 65 | 1500 (1991) | 61 (2014) | 318 | 71 | 77 | 96 | 99 | 190 | 441 | 589 | 828 | 1070 |
| 2026-05-05 08:45 | 5.18 | 65 | 1500 (1991) | 61 (2014) | 318 | 71 | 77 | 96 | 99 | 190 | 441 | 589 | 828 | 1070 |
| 2026-05-05 07:45 | 5.17 | 64 | 1500 (1991) | 61 (2014) | 318 | 71 | 77 | 96 | 99 | 190 | 441 | 589 | 828 | 1070 |
| 2026-05-05 06:45 | 5.18 | 65 | 1500 (1991) | 61 (2014) | 318 | 71 | 77 | 96 | 99 | 190 | 441 | 589 | 828 | 1070 |
| 2026-05-05 05:45 | 5.17 | 64 | 1500 (1991) | 61 (2014) | 318 | 71 | 77 | 96 | 99 | 190 | 441 | 589 | 828 | 1070 |
| 2026-05-05 04:45 | 5.18 | 65 | 1500 (1991) | 61 (2014) | 318 | 71 | 77 | 96 | 99 | 190 | 441 | 589 | 828 | 1070 |
| 2026-05-05 03:45 | 5.18 | 65 | 1500 (1991) | 61 (2014) | 318 | 71 | 77 | 96 | 99 | 190 | 441 | 589 | 828 | 1070 |
| 2026-05-05 02:45 | 5.19 | 67 | 1500 (1991) | 61 (2014) | 318 | 71 | 77 | 96 | 99 | 190 | 441 | 589 | 828 | 1070 |
| 2026-05-05 01:45 | 5.18 | 65 | 1500 (1991) | 61 (2014) | 318 | 71 | 77 | 96 | 99 | 190 | 441 | 589 | 828 | 1070 |
| 2026-05-05 00:45 | 5.19 | 67 | 1500 (1991) | 61 (2014) | 318 | 71 | 77 | 96 | 99 | 190 | 441 | 589 | 828 | 1070 |
| 2026-05-04 23:45 | 5.18 | 65 | 1500 (1991) | 61 (2014) | 318 | 71 | 77 | 96 | 99 | 190 | 441 | 589 | 828 | 1070 |
| 2026-05-04 22:45 | 5.19 | 67 | 2180 (1990) | 68 (2014) | 390 | 77 | 81 | 99 | 112 | 199 | 446 | 666 | 1010 | 1530 |
| 2026-05-04 21:45 | 5.18 | 65 | 2180 (1990) | 68 (2014) | 390 | 77 | 81 | 99 | 112 | 199 | 446 | 666 | 1010 | 1530 |
| 2026-05-04 20:45 | 5.19 | 67 | 2180 (1990) | 68 (2014) | 390 | 77 | 81 | 99 | 112 | 199 | 446 | 666 | 1010 | 1530 |
| 2026-05-04 19:45 | 5.19 | 67 | 2180 (1990) | 68 (2014) | 390 | 77 | 81 | 99 | 112 | 199 | 446 | 666 | 1010 | 1530 |
| 2026-05-04 18:45 | 5.20 | 68 | 2180 (1990) | 68 (2014) | 390 | 77 | 81 | 99 | 112 | 199 | 446 | 666 | 1010 | 1530 |
| 2026-05-04 17:45 | 5.21 | 70 | 2180 (1990) | 68 (2014) | 390 | 77 | 81 | 99 | 112 | 199 | 446 | 666 | 1010 | 1530 |
| 2026-05-04 16:45 | 5.21 | 70 | 2180 (1990) | 68 (2014) | 390 | 77 | 81 | 99 | 112 | 199 | 446 | 666 | 1010 | 1530 |
| 2026-05-04 15:45 | 5.20 | 68 | 2180 (1990) | 68 (2014) | 390 | 77 | 81 | 99 | 112 | 199 | 446 | 666 | 1010 | 1530 |
| 2026-05-04 14:45 | 5.20 | 68 | 2180 (1990) | 68 (2014) | 390 | 77 | 81 | 99 | 112 | 199 | 446 | 666 | 1010 | 1530 |
| 2026-05-04 13:45 | 5.22 | 72 | 2180 (1990) | 68 (2014) | 390 | 77 | 81 | 99 | 112 | 199 | 446 | 666 | 1010 | 1530 |
| 2026-05-04 12:45 | 5.22 | 72 | 2180 (1990) | 68 (2014) | 390 | 77 | 81 | 99 | 112 | 199 | 446 | 666 | 1010 | 1530 |
| 2026-05-04 11:45 | 5.21 | 70 | 2180 (1990) | 68 (2014) | 390 | 77 | 81 | 99 | 112 | 199 | 446 | 666 | 1010 | 1530 |
| 2026-05-04 10:45 | 5.22 | 72 | 2180 (1990) | 68 (2014) | 390 | 77 | 81 | 99 | 112 | 199 | 446 | 666 | 1010 | 1530 |
| 2026-05-04 09:45 | 5.22 | 72 | 2180 (1990) | 68 (2014) | 390 | 77 | 81 | 99 | 112 | 199 | 446 | 666 | 1010 | 1530 |
| 2026-05-04 08:45 | 5.23 | 73 | 2180 (1990) | 68 (2014) | 390 | 77 | 81 | 99 | 112 | 199 | 446 | 666 | 1010 | 1530 |
| 2026-05-04 07:45 | 5.22 | 72 | 2180 (1990) | 68 (2014) | 390 | 77 | 81 | 99 | 112 | 199 | 446 | 666 | 1010 | 1530 |
| 2026-05-04 06:45 | 5.23 | 73 | 2180 (1990) | 68 (2014) | 390 | 77 | 81 | 99 | 112 | 199 | 446 | 666 | 1010 | 1530 |
| 2026-05-04 05:45 | 5.23 | 73 | 2180 (1990) | 68 (2014) | 390 | 77 | 81 | 99 | 112 | 199 | 446 | 666 | 1010 | 1530 |
| 2026-05-04 04:45 | 5.22 | 72 | 2180 (1990) | 68 (2014) | 390 | 77 | 81 | 99 | 112 | 199 | 446 | 666 | 1010 | 1530 |
| 2026-05-04 03:45 | 5.23 | 73 | 2180 (1990) | 68 (2014) | 390 | 77 | 81 | 99 | 112 | 199 | 446 | 666 | 1010 | 1530 |
| 2026-05-04 02:45 | 5.24 | 75 | 2180 (1990) | 68 (2014) | 390 | 77 | 81 | 99 | 112 | 199 | 446 | 666 | 1010 | 1530 |
| 2026-05-04 01:45 | 5.24 | 75 | 2180 (1990) | 68 (2014) | 390 | 77 | 81 | 99 | 112 | 199 | 446 | 666 | 1010 | 1530 |
| 2026-05-04 00:45 | 5.24 | 75 | 2180 (1990) | 68 (2014) | 390 | 77 | 81 | 99 | 112 | 199 | 446 | 666 | 1010 | 1530 |
| 2026-05-03 23:45 | 5.25 | 76 | 2180 (1990) | 68 (2014) | 390 | 77 | 81 | 99 | 112 | 199 | 446 | 666 | 1010 | 1530 |
| 2026-05-03 22:45 | 5.25 | 76 | 3660 (1990) | 75 (2014) | 634 | 80 | 86 | 98 | 118 | 201 | 653 | 1100 | 2620 | 2970 |
| 2026-05-03 21:45 | 5.24 | 75 | 3660 (1990) | 75 (2014) | 634 | 80 | 86 | 98 | 118 | 201 | 653 | 1100 | 2620 | 2970 |
| 2026-05-03 20:45 | 5.25 | 76 | 3660 (1990) | 75 (2014) | 634 | 80 | 86 | 98 | 118 | 201 | 653 | 1100 | 2620 | 2970 |
| 2026-05-03 19:45 | 5.25 | 76 | 3660 (1990) | 75 (2014) | 634 | 80 | 86 | 98 | 118 | 201 | 653 | 1100 | 2620 | 2970 |
| 2026-05-03 18:45 | 5.24 | 75 | 3660 (1990) | 75 (2014) | 634 | 80 | 86 | 98 | 118 | 201 | 653 | 1100 | 2620 | 2970 |
| 2026-05-03 17:45 | 5.25 | 76 | 3660 (1990) | 75 (2014) | 634 | 80 | 86 | 98 | 118 | 201 | 653 | 1100 | 2620 | 2970 |
| 2026-05-03 16:45 | 5.25 | 76 | 3660 (1990) | 75 (2014) | 634 | 80 | 86 | 98 | 118 | 201 | 653 | 1100 | 2620 | 2970 |
| 2026-05-03 15:45 | 5.25 | 76 | 3660 (1990) | 75 (2014) | 634 | 80 | 86 | 98 | 118 | 201 | 653 | 1100 | 2620 | 2970 |
| 2026-05-03 14:45 | 5.26 | 78 | 3660 (1990) | 75 (2014) | 634 | 80 | 86 | 98 | 118 | 201 | 653 | 1100 | 2620 | 2970 |
| 2026-05-03 13:45 | 5.28 | 82 | 3660 (1990) | 75 (2014) | 634 | 80 | 86 | 98 | 118 | 201 | 653 | 1100 | 2620 | 2970 |
| 2026-05-03 12:45 | 5.28 | 82 | 3660 (1990) | 75 (2014) | 634 | 80 | 86 | 98 | 118 | 201 | 653 | 1100 | 2620 | 2970 |
| 2026-05-03 11:45 | 5.29 | 83 | 3660 (1990) | 75 (2014) | 634 | 80 | 86 | 98 | 118 | 201 | 653 | 1100 | 2620 | 2970 |
| 2026-05-03 10:45 | 5.28 | 82 | 3660 (1990) | 75 (2014) | 634 | 80 | 86 | 98 | 118 | 201 | 653 | 1100 | 2620 | 2970 |
| 2026-05-03 09:45 | 5.29 | 83 | 3660 (1990) | 75 (2014) | 634 | 80 | 86 | 98 | 118 | 201 | 653 | 1100 | 2620 | 2970 |
| 2026-05-03 08:45 | 5.29 | 83 | 3660 (1990) | 75 (2014) | 634 | 80 | 86 | 98 | 118 | 201 | 653 | 1100 | 2620 | 2970 |
| 2026-05-03 07:45 | 5.30 | 85 | 3660 (1990) | 75 (2014) | 634 | 80 | 86 | 98 | 118 | 201 | 653 | 1100 | 2620 | 2970 |
| 2026-05-03 06:45 | 5.30 | 85 | 3660 (1990) | 75 (2014) | 634 | 80 | 86 | 98 | 118 | 201 | 653 | 1100 | 2620 | 2970 |
| 2026-05-03 05:45 | 5.30 | 85 | 3660 (1990) | 75 (2014) | 634 | 80 | 86 | 98 | 118 | 201 | 653 | 1100 | 2620 | 2970 |
| 2026-05-03 04:45 | 5.30 | 85 | 3660 (1990) | 75 (2014) | 634 | 80 | 86 | 98 | 118 | 201 | 653 | 1100 | 2620 | 2970 |
| 2026-05-03 03:45 | 5.31 | 87 | 3660 (1990) | 75 (2014) | 634 | 80 | 86 | 98 | 118 | 201 | 653 | 1100 | 2620 | 2970 |
| 2026-05-03 02:45 | 5.31 | 87 | 3660 (1990) | 75 (2014) | 634 | 80 | 86 | 98 | 118 | 201 | 653 | 1100 | 2620 | 2970 |
| 2026-05-03 01:45 | 5.30 | 85 | 3660 (1990) | 75 (2014) | 634 | 80 | 86 | 98 | 118 | 201 | 653 | 1100 | 2620 | 2970 |
| 2026-05-03 00:45 | 5.30 | 85 | 3660 (1990) | 75 (2014) | 634 | 80 | 86 | 98 | 118 | 201 | 653 | 1100 | 2620 | 2970 |
| 2026-05-02 23:45 | 5.32 | 89 | 3660 (1990) | 75 (2014) | 634 | 80 | 86 | 98 | 118 | 201 | 653 | 1100 | 2620 | 2970 |
| 2026-05-02 22:45 | 5.32 | 89 | 8010 (2011) | 78 (2000) | 696 | 79 | 85 | 101 | 132 | 230 | 444 | 529 | 1520 | 5140 |
| 2026-05-02 21:45 | 5.33 | 91 | 8010 (2011) | 78 (2000) | 696 | 79 | 85 | 101 | 132 | 230 | 444 | 529 | 1520 | 5140 |
| 2026-05-02 20:45 | 5.33 | 91 | 8010 (2011) | 78 (2000) | 696 | 79 | 85 | 101 | 132 | 230 | 444 | 529 | 1520 | 5140 |
| 2026-05-02 19:45 | 5.31 | 87 | 8010 (2011) | 78 (2000) | 696 | 79 | 85 | 101 | 132 | 230 | 444 | 529 | 1520 | 5140 |
| 2026-05-02 18:45 | 5.33 | 91 | 8010 (2011) | 78 (2000) | 696 | 79 | 85 | 101 | 132 | 230 | 444 | 529 | 1520 | 5140 |
| 2026-05-02 17:45 | 5.33 | 91 | 8010 (2011) | 78 (2000) | 696 | 79 | 85 | 101 | 132 | 230 | 444 | 529 | 1520 | 5140 |
| 2026-05-02 16:45 | 5.35 | 95 | 8010 (2011) | 78 (2000) | 696 | 79 | 85 | 101 | 132 | 230 | 444 | 529 | 1520 | 5140 |
| 2026-05-02 15:45 | 5.34 | 93 | 8010 (2011) | 78 (2000) | 696 | 79 | 85 | 101 | 132 | 230 | 444 | 529 | 1520 | 5140 |
| 2026-05-02 14:45 | 5.35 | 95 | 8010 (2011) | 78 (2000) | 696 | 79 | 85 | 101 | 132 | 230 | 444 | 529 | 1520 | 5140 |
| 2026-05-02 13:45 | 5.35 | 95 | 8010 (2011) | 78 (2000) | 696 | 79 | 85 | 101 | 132 | 230 | 444 | 529 | 1520 | 5140 |
| 2026-05-02 12:45 | 5.36 | 97 | 8010 (2011) | 78 (2000) | 696 | 79 | 85 | 101 | 132 | 230 | 444 | 529 | 1520 | 5140 |
| 2026-05-02 11:45 | 5.37 | 99 | 8010 (2011) | 78 (2000) | 696 | 79 | 85 | 101 | 132 | 230 | 444 | 529 | 1520 | 5140 |
| 2026-05-02 10:45 | 5.36 | 97 | 8010 (2011) | 78 (2000) | 696 | 79 | 85 | 101 | 132 | 230 | 444 | 529 | 1520 | 5140 |
| 2026-05-02 09:45 | 5.38 | 101 | 8010 (2011) | 78 (2000) | 696 | 79 | 85 | 101 | 132 | 230 | 444 | 529 | 1520 | 5140 |
| 2026-05-02 08:45 | 5.38 | 101 | 8010 (2011) | 78 (2000) | 696 | 79 | 85 | 101 | 132 | 230 | 444 | 529 | 1520 | 5140 |
| 2026-05-02 07:45 | 5.40 | 105 | 8010 (2011) | 78 (2000) | 696 | 79 | 85 | 101 | 132 | 230 | 444 | 529 | 1520 | 5140 |
| 2026-05-02 06:45 | 5.39 | 103 | 8010 (2011) | 78 (2000) | 696 | 79 | 85 | 101 | 132 | 230 | 444 | 529 | 1520 | 5140 |
| 2026-05-02 05:45 | 5.40 | 105 | 8010 (2011) | 78 (2000) | 696 | 79 | 85 | 101 | 132 | 230 | 444 | 529 | 1520 | 5140 |
| 2026-05-02 04:45 | 5.40 | 105 | 8010 (2011) | 78 (2000) | 696 | 79 | 85 | 101 | 132 | 230 | 444 | 529 | 1520 | 5140 |
| 2026-05-02 03:45 | 5.40 | 105 | 8010 (2011) | 78 (2000) | 696 | 79 | 85 | 101 | 132 | 230 | 444 | 529 | 1520 | 5140 |
| 2026-05-02 02:45 | 5.40 | 105 | 8010 (2011) | 78 (2000) | 696 | 79 | 85 | 101 | 132 | 230 | 444 | 529 | 1520 | 5140 |
| 2026-05-02 01:45 | 5.40 | 105 | 8010 (2011) | 78 (2000) | 696 | 79 | 85 | 101 | 132 | 230 | 444 | 529 | 1520 | 5140 |
| 2026-05-02 00:45 | 5.41 | 107 | 8010 (2011) | 78 (2000) | 696 | 79 | 85 | 101 | 132 | 230 | 444 | 529 | 1520 | 5140 |
| 2026-05-01 23:45 | 5.41 | 107 | 8010 (2011) | 78 (2000) | 696 | 79 | 85 | 101 | 132 | 230 | 444 | 529 | 1520 | 5140 |
| 2026-05-01 22:45 | 5.42 | 109 | 4960 (2011) | 77 (2000) | 536 | 82 | 87 | 100 | 121 | 219 | 487 | 749 | 1470 | 2210 |
| 2026-05-01 21:45 | 5.40 | 105 | 4960 (2011) | 77 (2000) | 536 | 82 | 87 | 100 | 121 | 219 | 487 | 749 | 1470 | 2210 |
| 2026-05-01 20:45 | 5.42 | 109 | 4960 (2011) | 77 (2000) | 536 | 82 | 87 | 100 | 121 | 219 | 487 | 749 | 1470 | 2210 |
| 2026-05-01 19:45 | 5.43 | 111 | 4960 (2011) | 77 (2000) | 536 | 82 | 87 | 100 | 121 | 219 | 487 | 749 | 1470 | 2210 |
| 2026-05-01 18:45 | 5.42 | 109 | 4960 (2011) | 77 (2000) | 536 | 82 | 87 | 100 | 121 | 219 | 487 | 749 | 1470 | 2210 |
| 2026-05-01 17:45 | 5.44 | 113 | 4960 (2011) | 77 (2000) | 536 | 82 | 87 | 100 | 121 | 219 | 487 | 749 | 1470 | 2210 |
| 2026-05-01 16:45 | 5.44 | 113 | 4960 (2011) | 77 (2000) | 536 | 82 | 87 | 100 | 121 | 219 | 487 | 749 | 1470 | 2210 |
| 2026-05-01 15:45 | 5.45 | 115 | 4960 (2011) | 77 (2000) | 536 | 82 | 87 | 100 | 121 | 219 | 487 | 749 | 1470 | 2210 |
| 2026-05-01 14:45 | 5.46 | 117 | 4960 (2011) | 77 (2000) | 536 | 82 | 87 | 100 | 121 | 219 | 487 | 749 | 1470 | 2210 |
| 2026-05-01 13:45 | 5.46 | 117 | 4960 (2011) | 77 (2000) | 536 | 82 | 87 | 100 | 121 | 219 | 487 | 749 | 1470 | 2210 |
| 2026-05-01 12:45 | 5.47 | 120 | 4960 (2011) | 77 (2000) | 536 | 82 | 87 | 100 | 121 | 219 | 487 | 749 | 1470 | 2210 |
| 2026-05-01 11:45 | 5.49 | 124 | 4960 (2011) | 77 (2000) | 536 | 82 | 87 | 100 | 121 | 219 | 487 | 749 | 1470 | 2210 |
| 2026-05-01 10:45 | 5.50 | 127 | 4960 (2011) | 77 (2000) | 536 | 82 | 87 | 100 | 121 | 219 | 487 | 749 | 1470 | 2210 |
| 2026-05-01 09:45 | 5.48 | 122 | 4960 (2011) | 77 (2000) | 536 | 82 | 87 | 100 | 121 | 219 | 487 | 749 | 1470 | 2210 |
| 2026-05-01 08:45 | 5.50 | 127 | 4960 (2011) | 77 (2000) | 536 | 82 | 87 | 100 | 121 | 219 | 487 | 749 | 1470 | 2210 |
| 2026-05-01 07:45 | 5.50 | 127 | 4960 (2011) | 77 (2000) | 536 | 82 | 87 | 100 | 121 | 219 | 487 | 749 | 1470 | 2210 |
| 2026-05-01 06:45 | 5.51 | 129 | 4960 (2011) | 77 (2000) | 536 | 82 | 87 | 100 | 121 | 219 | 487 | 749 | 1470 | 2210 |
| 2026-05-01 05:45 | 5.50 | 127 | 4960 (2011) | 77 (2000) | 536 | 82 | 87 | 100 | 121 | 219 | 487 | 749 | 1470 | 2210 |
| 2026-05-01 04:45 | 5.51 | 129 | 4960 (2011) | 77 (2000) | 536 | 82 | 87 | 100 | 121 | 219 | 487 | 749 | 1470 | 2210 |
| 2026-05-01 03:45 | 5.52 | 131 | 4960 (2011) | 77 (2000) | 536 | 82 | 87 | 100 | 121 | 219 | 487 | 749 | 1470 | 2210 |
| 2026-05-01 02:45 | 5.54 | 136 | 4960 (2011) | 77 (2000) | 536 | 82 | 87 | 100 | 121 | 219 | 487 | 749 | 1470 | 2210 |
| 2026-05-01 01:45 | 5.52 | 131 | 4960 (2011) | 77 (2000) | 536 | 82 | 87 | 100 | 121 | 219 | 487 | 749 | 1470 | 2210 |
| 2026-05-01 00:45 | 5.52 | 131 | 4960 (2011) | 77 (2000) | 536 | 82 | 87 | 100 | 121 | 219 | 487 | 749 | 1470 | 2210 |
| 2026-04-30 23:45 | 5.54 | 136 | 4960 (2011) | 77 (2000) | 536 | 82 | 87 | 100 | 121 | 219 | 487 | 749 | 1470 | 2210 |
| 2026-04-30 22:45 | 5.53 | 134 | 10100 (2017) | 81 (2000) | 801 | 90 | 94 | 99 | 114 | 236 | 386 | 624 | 921 | 9080 |
| 2026-04-30 21:45 | 5.57 | 144 | 10100 (2017) | 81 (2000) | 801 | 90 | 94 | 99 | 114 | 236 | 386 | 624 | 921 | 9080 |
| 2026-04-30 20:45 | 5.56 | 141 | 10100 (2017) | 81 (2000) | 801 | 90 | 94 | 99 | 114 | 236 | 386 | 624 | 921 | 9080 |
| 2026-04-30 19:45 | 5.56 | 141 | 10100 (2017) | 81 (2000) | 801 | 90 | 94 | 99 | 114 | 236 | 386 | 624 | 921 | 9080 |
| 2026-04-30 18:45 | 5.57 | 144 | 10100 (2017) | 81 (2000) | 801 | 90 | 94 | 99 | 114 | 236 | 386 | 624 | 921 | 9080 |
| 2026-04-30 17:45 | 5.57 | 144 | 10100 (2017) | 81 (2000) | 801 | 90 | 94 | 99 | 114 | 236 | 386 | 624 | 921 | 9080 |
| 2026-04-30 16:45 | 5.59 | 149 | 10100 (2017) | 81 (2000) | 801 | 90 | 94 | 99 | 114 | 236 | 386 | 624 | 921 | 9080 |
| 2026-04-30 15:45 | 5.59 | 149 | 10100 (2017) | 81 (2000) | 801 | 90 | 94 | 99 | 114 | 236 | 386 | 624 | 921 | 9080 |
| 2026-04-30 14:45 | 5.61 | 154 | 10100 (2017) | 81 (2000) | 801 | 90 | 94 | 99 | 114 | 236 | 386 | 624 | 921 | 9080 |
| 2026-04-30 13:45 | 5.61 | 154 | 10100 (2017) | 81 (2000) | 801 | 90 | 94 | 99 | 114 | 236 | 386 | 624 | 921 | 9080 |
| 2026-04-30 12:45 | 5.63 | 159 | 10100 (2017) | 81 (2000) | 801 | 90 | 94 | 99 | 114 | 236 | 386 | 624 | 921 | 9080 |
| 2026-04-30 11:45 | 5.63 | 159 | 10100 (2017) | 81 (2000) | 801 | 90 | 94 | 99 | 114 | 236 | 386 | 624 | 921 | 9080 |
| 2026-04-30 10:45 | 5.63 | 159 | 10100 (2017) | 81 (2000) | 801 | 90 | 94 | 99 | 114 | 236 | 386 | 624 | 921 | 9080 |
| 2026-04-30 09:45 | 5.66 | 167 | 10100 (2017) | 81 (2000) | 801 | 90 | 94 | 99 | 114 | 236 | 386 | 624 | 921 | 9080 |
| 2026-04-30 08:45 | 5.66 | 167 | 10100 (2017) | 81 (2000) | 801 | 90 | 94 | 99 | 114 | 236 | 386 | 624 | 921 | 9080 |
| 2026-04-30 07:45 | 5.65 | 165 | 10100 (2017) | 81 (2000) | 801 | 90 | 94 | 99 | 114 | 236 | 386 | 624 | 921 | 9080 |
| 2026-04-30 06:45 | 5.66 | 167 | 10100 (2017) | 81 (2000) | 801 | 90 | 94 | 99 | 114 | 236 | 386 | 624 | 921 | 9080 |
| 2026-04-30 05:45 | 5.68 | 173 | 10100 (2017) | 81 (2000) | 801 | 90 | 94 | 99 | 114 | 236 | 386 | 624 | 921 | 9080 |
| 2026-04-30 04:45 | 5.68 | 173 | 10100 (2017) | 81 (2000) | 801 | 90 | 94 | 99 | 114 | 236 | 386 | 624 | 921 | 9080 |
| 2026-04-30 03:45 | 5.70 | 179 | 10100 (2017) | 81 (2000) | 801 | 90 | 94 | 99 | 114 | 236 | 386 | 624 | 921 | 9080 |
| 2026-04-30 02:45 | 5.68 | 173 | 10100 (2017) | 81 (2000) | 801 | 90 | 94 | 99 | 114 | 236 | 386 | 624 | 921 | 9080 |
| 2026-04-30 01:45 | 5.68 | 173 | 10100 (2017) | 81 (2000) | 801 | 90 | 94 | 99 | 114 | 236 | 386 | 624 | 921 | 9080 |
| 2026-04-30 00:45 | 5.71 | 182 | 10100 (2017) | 81 (2000) | 801 | 90 | 94 | 99 | 114 | 236 | 386 | 624 | 921 | 9080 |
| 2026-04-29 23:45 | 5.71 | 182 | 10100 (2017) | 81 (2000) | 801 | 90 | 94 | 99 | 114 | 236 | 386 | 624 | 921 | 9080 |
| 2026-04-29 22:45 | 5.70 | 179 | 7060 (2016) | 65 (2012) | 708 | 83 | 92 | 105 | 112 | 239 | 430 | 770 | 1830 | 4690 |
| 2026-04-29 21:45 | 5.73 | 188 | 7060 (2016) | 65 (2012) | 708 | 83 | 92 | 105 | 112 | 239 | 430 | 770 | 1830 | 4690 |
| 2026-04-29 20:45 | 5.74 | 191 | 7060 (2016) | 65 (2012) | 708 | 83 | 92 | 105 | 112 | 239 | 430 | 770 | 1830 | 4690 |
| 2026-04-29 19:45 | 5.76 | 197 | 7060 (2016) | 65 (2012) | 708 | 83 | 92 | 105 | 112 | 239 | 430 | 770 | 1830 | 4690 |
| 2026-04-29 18:45 | 5.76 | 197 | 7060 (2016) | 65 (2012) | 708 | 83 | 92 | 105 | 112 | 239 | 430 | 770 | 1830 | 4690 |
| 2026-04-29 17:45 | 5.78 | 203 | 7060 (2016) | 65 (2012) | 708 | 83 | 92 | 105 | 112 | 239 | 430 | 770 | 1830 | 4690 |
| 2026-04-29 16:45 | 5.78 | 203 | 7060 (2016) | 65 (2012) | 708 | 83 | 92 | 105 | 112 | 239 | 430 | 770 | 1830 | 4690 |
| 2026-04-29 15:45 | 5.82 | 216 | 7060 (2016) | 65 (2012) | 708 | 83 | 92 | 105 | 112 | 239 | 430 | 770 | 1830 | 4690 |
| 2026-04-29 14:45 | 5.83 | 219 | 7060 (2016) | 65 (2012) | 708 | 83 | 92 | 105 | 112 | 239 | 430 | 770 | 1830 | 4690 |
| 2026-04-29 13:45 | 5.83 | 219 | 7060 (2016) | 65 (2012) | 708 | 83 | 92 | 105 | 112 | 239 | 430 | 770 | 1830 | 4690 |
| 2026-04-29 12:45 | 5.86 | 229 | 7060 (2016) | 65 (2012) | 708 | 83 | 92 | 105 | 112 | 239 | 430 | 770 | 1830 | 4690 |
| 2026-04-29 11:45 | 5.84 | 222 | 7060 (2016) | 65 (2012) | 708 | 83 | 92 | 105 | 112 | 239 | 430 | 770 | 1830 | 4690 |
| 2026-04-29 10:45 | 5.92 | 250 | 7060 (2016) | 65 (2012) | 708 | 83 | 92 | 105 | 112 | 239 | 430 | 770 | 1830 | 4690 |
| 2026-04-29 09:45 | 5.90 | 243 | 7060 (2016) | 65 (2012) | 708 | 83 | 92 | 105 | 112 | 239 | 430 | 770 | 1830 | 4690 |
| 2026-04-29 08:45 | 5.89 | 239 | 7060 (2016) | 65 (2012) | 708 | 83 | 92 | 105 | 112 | 239 | 430 | 770 | 1830 | 4690 |
| 2026-04-29 07:45 | 5.95 | 261 | 7060 (2016) | 65 (2012) | 708 | 83 | 92 | 105 | 112 | 239 | 430 | 770 | 1830 | 4690 |
| 2026-04-29 06:45 | 5.90 | 243 | 7060 (2016) | 65 (2012) | 708 | 83 | 92 | 105 | 112 | 239 | 430 | 770 | 1830 | 4690 |
| 2026-04-29 05:45 | 5.92 | 250 | 7060 (2016) | 65 (2012) | 708 | 83 | 92 | 105 | 112 | 239 | 430 | 770 | 1830 | 4690 |
| 2026-04-29 04:45 | 5.95 | 261 | 7060 (2016) | 65 (2012) | 708 | 83 | 92 | 105 | 112 | 239 | 430 | 770 | 1830 | 4690 |
| 2026-04-29 03:45 | 5.94 | 257 | 7060 (2016) | 65 (2012) | 708 | 83 | 92 | 105 | 112 | 239 | 430 | 770 | 1830 | 4690 |
| 2026-04-29 02:45 | 5.97 | 268 | 7060 (2016) | 65 (2012) | 708 | 83 | 92 | 105 | 112 | 239 | 430 | 770 | 1830 | 4690 |
| 2026-04-29 01:45 | 5.95 | 261 | 7060 (2016) | 65 (2012) | 708 | 83 | 92 | 105 | 112 | 239 | 430 | 770 | 1830 | 4690 |
| 2026-04-29 00:45 | 5.94 | 257 | 7060 (2016) | 65 (2012) | 708 | 83 | 92 | 105 | 112 | 239 | 430 | 770 | 1830 | 4690 |
| 2026-04-28 23:45 | 5.96 | 264 | 7060 (2016) | 65 (2012) | 708 | 83 | 92 | 105 | 112 | 239 | 430 | 770 | 1830 | 4690 |
| 2026-04-28 22:45 | 5.96 | 264 | 1040 (2011) | 65 (2006) | 285 | 67 | 86 | 107 | 110 | 186 | 424 | 487 | 657 | 739 |
| 2026-04-28 21:45 | 5.99 | 276 | 1040 (2011) | 65 (2006) | 285 | 67 | 86 | 107 | 110 | 186 | 424 | 487 | 657 | 739 |
| 2026-04-28 20:45 | 5.98 | 272 | 1040 (2011) | 65 (2006) | 285 | 67 | 86 | 107 | 110 | 186 | 424 | 487 | 657 | 739 |
| 2026-04-28 19:45 | 6.00 | 279 | 1040 (2011) | 65 (2006) | 285 | 67 | 86 | 107 | 110 | 186 | 424 | 487 | 657 | 739 |
| 2026-04-28 18:45 | 5.99 | 276 | 1040 (2011) | 65 (2006) | 285 | 67 | 86 | 107 | 110 | 186 | 424 | 487 | 657 | 739 |
| 2026-04-28 17:45 | 6.00 | 279 | 1040 (2011) | 65 (2006) | 285 | 67 | 86 | 107 | 110 | 186 | 424 | 487 | 657 | 739 |
| 2026-04-28 16:45 | 6.00 | 279 | 1040 (2011) | 65 (2006) | 285 | 67 | 86 | 107 | 110 | 186 | 424 | 487 | 657 | 739 |
| 2026-04-28 15:45 | 6.01 | 283 | 1040 (2011) | 65 (2006) | 285 | 67 | 86 | 107 | 110 | 186 | 424 | 487 | 657 | 739 |
| 2026-04-28 14:45 | 6.02 | 287 | 1040 (2011) | 65 (2006) | 285 | 67 | 86 | 107 | 110 | 186 | 424 | 487 | 657 | 739 |
| 2026-04-28 13:45 | 6.03 | 291 | 1040 (2011) | 65 (2006) | 285 | 67 | 86 | 107 | 110 | 186 | 424 | 487 | 657 | 739 |
| 2026-04-28 12:45 | 6.03 | 291 | 1040 (2011) | 65 (2006) | 285 | 67 | 86 | 107 | 110 | 186 | 424 | 487 | 657 | 739 |
| 2026-04-28 11:45 | 6.03 | 291 | 1040 (2011) | 65 (2006) | 285 | 67 | 86 | 107 | 110 | 186 | 424 | 487 | 657 | 739 |
| 2026-04-28 10:45 | 6.09 | 315 | 1040 (2011) | 65 (2006) | 285 | 67 | 86 | 107 | 110 | 186 | 424 | 487 | 657 | 739 |
| 2026-04-28 09:45 | 6.08 | 311 | 1040 (2011) | 65 (2006) | 285 | 67 | 86 | 107 | 110 | 186 | 424 | 487 | 657 | 739 |
| 2026-04-28 08:45 | 6.12 | 328 | 1040 (2011) | 65 (2006) | 285 | 67 | 86 | 107 | 110 | 186 | 424 | 487 | 657 | 739 |
| 2026-04-28 07:45 | 6.14 | 336 | 1040 (2011) | 65 (2006) | 285 | 67 | 86 | 107 | 110 | 186 | 424 | 487 | 657 | 739 |
| 2026-04-28 06:45 | 6.15 | 341 | 1040 (2011) | 65 (2006) | 285 | 67 | 86 | 107 | 110 | 186 | 424 | 487 | 657 | 739 |
| 2026-04-28 05:45 | 6.15 | 341 | 1040 (2011) | 65 (2006) | 285 | 67 | 86 | 107 | 110 | 186 | 424 | 487 | 657 | 739 |
| 2026-04-28 04:45 | 6.17 | 350 | 1040 (2011) | 65 (2006) | 285 | 67 | 86 | 107 | 110 | 186 | 424 | 487 | 657 | 739 |
| 2026-04-28 03:45 | 6.18 | 354 | 1040 (2011) | 65 (2006) | 285 | 67 | 86 | 107 | 110 | 186 | 424 | 487 | 657 | 739 |
| 2026-04-28 02:45 | 6.19 | 358 | 1040 (2011) | 65 (2006) | 285 | 67 | 86 | 107 | 110 | 186 | 424 | 487 | 657 | 739 |
| 2026-04-28 01:45 | 6.21 | 368 | 1040 (2011) | 65 (2006) | 285 | 67 | 86 | 107 | 110 | 186 | 424 | 487 | 657 | 739 |
| 2026-04-28 00:45 | 6.23 | 377 | 1040 (2011) | 65 (2006) | 285 | 67 | 86 | 107 | 110 | 186 | 424 | 487 | 657 | 739 |
| 2026-04-27 23:45 | 6.24 | 381 | 1040 (2011) | 65 (2006) | 285 | 67 | 86 | 107 | 110 | 186 | 424 | 487 | 657 | 739 |
| 2026-04-27 22:45 | 6.26 | 391 | 2750 (2011) | 70 (2012) | 409 | 71 | 92 | 117 | 127 | 209 | 541 | 659 | 880 | 1540 |
| 2026-04-27 21:45 | 6.25 | 386 | 2750 (2011) | 70 (2012) | 409 | 71 | 92 | 117 | 127 | 209 | 541 | 659 | 880 | 1540 |
| 2026-04-27 20:45 | 6.29 | 405 | 2750 (2011) | 70 (2012) | 409 | 71 | 92 | 117 | 127 | 209 | 541 | 659 | 880 | 1540 |
| 2026-04-27 19:45 | 6.31 | 415 | 2750 (2011) | 70 (2012) | 409 | 71 | 92 | 117 | 127 | 209 | 541 | 659 | 880 | 1540 |
| 2026-04-27 18:45 | 6.33 | 425 | 2750 (2011) | 70 (2012) | 409 | 71 | 92 | 117 | 127 | 209 | 541 | 659 | 880 | 1540 |
| 2026-04-27 17:45 | 6.39 | 456 | 2750 (2011) | 70 (2012) | 409 | 71 | 92 | 117 | 127 | 209 | 541 | 659 | 880 | 1540 |
| 2026-04-27 16:45 | 6.39 | 456 | 2750 (2011) | 70 (2012) | 409 | 71 | 92 | 117 | 127 | 209 | 541 | 659 | 880 | 1540 |
| 2026-04-27 15:45 | 6.45 | 488 | 2750 (2011) | 70 (2012) | 409 | 71 | 92 | 117 | 127 | 209 | 541 | 659 | 880 | 1540 |
| 2026-04-27 14:45 | 6.46 | 493 | 2750 (2011) | 70 (2012) | 409 | 71 | 92 | 117 | 127 | 209 | 541 | 659 | 880 | 1540 |
| 2026-04-27 13:45 | 6.51 | 521 | 2750 (2011) | 70 (2012) | 409 | 71 | 92 | 117 | 127 | 209 | 541 | 659 | 880 | 1540 |
| 2026-04-27 12:45 | 6.54 | 538 | 2750 (2011) | 70 (2012) | 409 | 71 | 92 | 117 | 127 | 209 | 541 | 659 | 880 | 1540 |
| 2026-04-27 11:45 | 6.60 | 574 | 2750 (2011) | 70 (2012) | 409 | 71 | 92 | 117 | 127 | 209 | 541 | 659 | 880 | 1540 |
| 2026-04-27 10:45 | 6.60 | 574 | 2750 (2011) | 70 (2012) | 409 | 71 | 92 | 117 | 127 | 209 | 541 | 659 | 880 | 1540 |
| 2026-04-27 09:45 | 6.65 | 604 | 2750 (2011) | 70 (2012) | 409 | 71 | 92 | 117 | 127 | 209 | 541 | 659 | 880 | 1540 |
| 2026-04-27 08:45 | 6.68 | 623 | 2750 (2011) | 70 (2012) | 409 | 71 | 92 | 117 | 127 | 209 | 541 | 659 | 880 | 1540 |
| 2026-04-27 07:45 | 6.71 | 643 | 2750 (2011) | 70 (2012) | 409 | 71 | 92 | 117 | 127 | 209 | 541 | 659 | 880 | 1540 |
| 2026-04-27 06:45 | 6.74 | 662 | 2750 (2011) | 70 (2012) | 409 | 71 | 92 | 117 | 127 | 209 | 541 | 659 | 880 | 1540 |
| 2026-04-27 05:45 | 6.78 | 688 | 2750 (2011) | 70 (2012) | 409 | 71 | 92 | 117 | 127 | 209 | 541 | 659 | 880 | 1540 |
| 2026-04-27 04:45 | 6.85 | 730 | 2750 (2011) | 70 (2012) | 409 | 71 | 92 | 117 | 127 | 209 | 541 | 659 | 880 | 1540 |
| 2026-04-27 03:45 | 6.87 | 742 | 2750 (2011) | 70 (2012) | 409 | 71 | 92 | 117 | 127 | 209 | 541 | 659 | 880 | 1540 |
| 2026-04-27 02:45 | 6.93 | 779 | 2750 (2011) | 70 (2012) | 409 | 71 | 92 | 117 | 127 | 209 | 541 | 659 | 880 | 1540 |
| 2026-04-27 01:45 | 6.98 | 811 | 2750 (2011) | 70 (2012) | 409 | 71 | 92 | 117 | 127 | 209 | 541 | 659 | 880 | 1540 |
| 2026-04-27 00:45 | 7.02 | 837 | 2750 (2011) | 70 (2012) | 409 | 71 | 92 | 117 | 127 | 209 | 541 | 659 | 880 | 1540 |
| 2026-04-26 23:45 | 7.05 | 858 | 2750 (2011) | 70 (2012) | 409 | 71 | 92 | 117 | 127 | 209 | 541 | 659 | 880 | 1540 |
| 2026-04-26 22:45 | 7.10 | 892 | 4810 (2011) | 72 (2012) | 446 | 84 | 88 | 113 | 119 | 173 | 503 | 575 | 1050 | 1530 |
| 2026-04-26 21:45 | 7.15 | 926 | 4810 (2011) | 72 (2012) | 446 | 84 | 88 | 113 | 119 | 173 | 503 | 575 | 1050 | 1530 |
| 2026-04-26 20:45 | 7.18 | 947 | 4810 (2011) | 72 (2012) | 446 | 84 | 88 | 113 | 119 | 173 | 503 | 575 | 1050 | 1530 |
| 2026-04-26 19:45 | 7.24 | 990 | 4810 (2011) | 72 (2012) | 446 | 84 | 88 | 113 | 119 | 173 | 503 | 575 | 1050 | 1530 |
| 2026-04-26 18:45 | 7.31 | 1040 | 4810 (2011) | 72 (2012) | 446 | 84 | 88 | 113 | 119 | 173 | 503 | 575 | 1050 | 1530 |
| 2026-04-26 17:45 | 7.44 | 1120 | 4810 (2011) | 72 (2012) | 446 | 84 | 88 | 113 | 119 | 173 | 503 | 575 | 1050 | 1530 |
| 2026-04-26 16:45 | 7.58 | 1210 | 4810 (2011) | 72 (2012) | 446 | 84 | 88 | 113 | 119 | 173 | 503 | 575 | 1050 | 1530 |
| 2026-04-26 15:45 | 7.77 | 1330 | 4810 (2011) | 72 (2012) | 446 | 84 | 88 | 113 | 119 | 173 | 503 | 575 | 1050 | 1530 |
| 2026-04-26 14:45 | 7.88 | 1410 | 4810 (2011) | 72 (2012) | 446 | 84 | 88 | 113 | 119 | 173 | 503 | 575 | 1050 | 1530 |
| 2026-04-26 13:45 | 8.02 | 1510 | 4810 (2011) | 72 (2012) | 446 | 84 | 88 | 113 | 119 | 173 | 503 | 575 | 1050 | 1530 |
| 2026-04-26 12:45 | 8.23 | 1660 | 4810 (2011) | 72 (2012) | 446 | 84 | 88 | 113 | 119 | 173 | 503 | 575 | 1050 | 1530 |
| 2026-04-26 11:45 | 8.25 | 1680 | 4810 (2011) | 72 (2012) | 446 | 84 | 88 | 113 | 119 | 173 | 503 | 575 | 1050 | 1530 |
| 2026-04-26 10:45 | 8.60 | 1960 | 4810 (2011) | 72 (2012) | 446 | 84 | 88 | 113 | 119 | 173 | 503 | 575 | 1050 | 1530 |
| 2026-04-26 09:45 | 8.56 | 1930 | 4810 (2011) | 72 (2012) | 446 | 84 | 88 | 113 | 119 | 173 | 503 | 575 | 1050 | 1530 |
| 2026-04-26 08:45 | 8.74 | 2090 | 4810 (2011) | 72 (2012) | 446 | 84 | 88 | 113 | 119 | 173 | 503 | 575 | 1050 | 1530 |
| 2026-04-26 07:45 | 9.05 | 2380 | 4810 (2011) | 72 (2012) | 446 | 84 | 88 | 113 | 119 | 173 | 503 | 575 | 1050 | 1530 |
| 2026-04-26 06:45 | 9.26 | 2590 | 4810 (2011) | 72 (2012) | 446 | 84 | 88 | 113 | 119 | 173 | 503 | 575 | 1050 | 1530 |
| 2026-04-26 05:45 | 10.14 | 3620 | 4810 (2011) | 72 (2012) | 446 | 84 | 88 | 113 | 119 | 173 | 503 | 575 | 1050 | 1530 |
| 2026-04-26 04:45 | 11.16 | 5100 | 4810 (2011) | 72 (2012) | 446 | 84 | 88 | 113 | 119 | 173 | 503 | 575 | 1050 | 1530 |
| 2026-04-26 03:45 | 12.54 | 7590 | 4810 (2011) | 72 (2012) | 446 | 84 | 88 | 113 | 119 | 173 | 503 | 575 | 1050 | 1530 |
| 2026-04-26 02:45 | 12.87 | 8290 | 4810 (2011) | 72 (2012) | 446 | 84 | 88 | 113 | 119 | 173 | 503 | 575 | 1050 | 1530 |
| 2026-04-26 01:45 | 13.05 | 8680 | 4810 (2011) | 72 (2012) | 446 | 84 | 88 | 113 | 119 | 173 | 503 | 575 | 1050 | 1530 |
| 2026-04-26 00:45 | 12.92 | 8400 | 4810 (2011) | 72 (2012) | 446 | 84 | 88 | 113 | 119 | 173 | 503 | 575 | 1050 | 1530 |
| 2026-04-25 23:45 | 11.86 | 6280 | 4810 (2011) | 72 (2012) | 446 | 84 | 88 | 113 | 119 | 173 | 503 | 575 | 1050 | 1530 |
| 2026-04-25 22:45 | 8.23 | 1660 | 8210 (2011) | 73 (2012) | 658 | 88 | 93 | 105 | 115 | 175 | 384 | 694 | 1740 | 4180 |
| 2026-04-25 21:45 | 5.93 | 253 | 8210 (2011) | 73 (2012) | 658 | 88 | 93 | 105 | 115 | 175 | 384 | 694 | 1740 | 4180 |
| 2026-04-25 20:45 | 5.49 | 124 | 8210 (2011) | 73 (2012) | 658 | 88 | 93 | 105 | 115 | 175 | 384 | 694 | 1740 | 4180 |
| 2026-04-25 19:45 | 5.47 | 120 | 8210 (2011) | 73 (2012) | 658 | 88 | 93 | 105 | 115 | 175 | 384 | 694 | 1740 | 4180 |
| 2026-04-25 18:45 | 5.49 | 124 | 8210 (2011) | 73 (2012) | 658 | 88 | 93 | 105 | 115 | 175 | 384 | 694 | 1740 | 4180 |
| 2026-04-25 17:45 | 5.53 | 134 | 8210 (2011) | 73 (2012) | 658 | 88 | 93 | 105 | 115 | 175 | 384 | 694 | 1740 | 4180 |
| 2026-04-25 16:45 | 5.53 | 134 | 8210 (2011) | 73 (2012) | 658 | 88 | 93 | 105 | 115 | 175 | 384 | 694 | 1740 | 4180 |
| 2026-04-25 15:45 | 5.55 | 139 | 8210 (2011) | 73 (2012) | 658 | 88 | 93 | 105 | 115 | 175 | 384 | 694 | 1740 | 4180 |
| 2026-04-25 14:45 | 5.56 | 141 | 8210 (2011) | 73 (2012) | 658 | 88 | 93 | 105 | 115 | 175 | 384 | 694 | 1740 | 4180 |
| 2026-04-25 13:45 | 5.56 | 141 | 8210 (2011) | 73 (2012) | 658 | 88 | 93 | 105 | 115 | 175 | 384 | 694 | 1740 | 4180 |
| 2026-04-25 12:45 | 5.58 | 146 | 8210 (2011) | 73 (2012) | 658 | 88 | 93 | 105 | 115 | 175 | 384 | 694 | 1740 | 4180 |
| 2026-04-25 11:45 | 5.60 | 151 | 8210 (2011) | 73 (2012) | 658 | 88 | 93 | 105 | 115 | 175 | 384 | 694 | 1740 | 4180 |
| 2026-04-25 10:45 | 5.59 | 149 | 8210 (2011) | 73 (2012) | 658 | 88 | 93 | 105 | 115 | 175 | 384 | 694 | 1740 | 4180 |
| 2026-04-25 09:45 | 5.61 | 154 | 8210 (2011) | 73 (2012) | 658 | 88 | 93 | 105 | 115 | 175 | 384 | 694 | 1740 | 4180 |
| 2026-04-25 08:45 | 5.63 | 159 | 8210 (2011) | 73 (2012) | 658 | 88 | 93 | 105 | 115 | 175 | 384 | 694 | 1740 | 4180 |
| 2026-04-25 07:45 | 5.64 | 162 | 8210 (2011) | 73 (2012) | 658 | 88 | 93 | 105 | 115 | 175 | 384 | 694 | 1740 | 4180 |
| 2026-04-25 06:45 | 5.61 | 154 | 8210 (2011) | 73 (2012) | 658 | 88 | 93 | 105 | 115 | 175 | 384 | 694 | 1740 | 4180 |
| 2026-04-25 05:45 | 5.59 | 149 | 8210 (2011) | 73 (2012) | 658 | 88 | 93 | 105 | 115 | 175 | 384 | 694 | 1740 | 4180 |
| 2026-04-25 04:45 | 5.55 | 139 | 8210 (2011) | 73 (2012) | 658 | 88 | 93 | 105 | 115 | 175 | 384 | 694 | 1740 | 4180 |
| 2026-04-25 03:45 | 5.54 | 136 | 8210 (2011) | 73 (2012) | 658 | 88 | 93 | 105 | 115 | 175 | 384 | 694 | 1740 | 4180 |
| 2026-04-25 02:45 | 5.53 | 134 | 8210 (2011) | 73 (2012) | 658 | 88 | 93 | 105 | 115 | 175 | 384 | 694 | 1740 | 4180 |
| 2026-04-25 01:45 | 5.52 | 131 | 8210 (2011) | 73 (2012) | 658 | 88 | 93 | 105 | 115 | 175 | 384 | 694 | 1740 | 4180 |
| 2026-04-25 00:45 | 5.46 | 117 | 8210 (2011) | 73 (2012) | 658 | 88 | 93 | 105 | 115 | 175 | 384 | 694 | 1740 | 4180 |
| 2026-04-24 23:45 | 5.40 | 105 | 8210 (2011) | 73 (2012) | 658 | 88 | 93 | 105 | 115 | 175 | 384 | 694 | 1740 | 4180 |
| 2026-04-24 22:45 | 5.35 | 95 | 2760 (2004) | 66 (2006) | 334 | 75 | 91 | 107 | 113 | 200 | 364 | 422 | 738 | 1210 |
| 2026-04-24 21:45 | 5.32 | 89 | 2760 (2004) | 66 (2006) | 334 | 75 | 91 | 107 | 113 | 200 | 364 | 422 | 738 | 1210 |
| 2026-04-24 20:45 | 5.25 | 76 | 2760 (2004) | 66 (2006) | 334 | 75 | 91 | 107 | 113 | 200 | 364 | 422 | 738 | 1210 |
| 2026-04-24 19:45 | 5.22 | 72 | 2760 (2004) | 66 (2006) | 334 | 75 | 91 | 107 | 113 | 200 | 364 | 422 | 738 | 1210 |
| 2026-04-24 18:45 | 5.21 | 70 | 2760 (2004) | 66 (2006) | 334 | 75 | 91 | 107 | 113 | 200 | 364 | 422 | 738 | 1210 |
| 2026-04-24 17:45 | 5.20 | 68 | 2760 (2004) | 66 (2006) | 334 | 75 | 91 | 107 | 113 | 200 | 364 | 422 | 738 | 1210 |
| 2026-04-24 16:45 | 5.19 | 67 | 2760 (2004) | 66 (2006) | 334 | 75 | 91 | 107 | 113 | 200 | 364 | 422 | 738 | 1210 |
| 2026-04-24 15:45 | 5.19 | 67 | 2760 (2004) | 66 (2006) | 334 | 75 | 91 | 107 | 113 | 200 | 364 | 422 | 738 | 1210 |
| 2026-04-24 14:45 | 5.18 | 65 | 2760 (2004) | 66 (2006) | 334 | 75 | 91 | 107 | 113 | 200 | 364 | 422 | 738 | 1210 |
| 2026-04-24 13:45 | 5.19 | 67 | 2760 (2004) | 66 (2006) | 334 | 75 | 91 | 107 | 113 | 200 | 364 | 422 | 738 | 1210 |
| 2026-04-24 12:45 | 5.16 | 62 | 2760 (2004) | 66 (2006) | 334 | 75 | 91 | 107 | 113 | 200 | 364 | 422 | 738 | 1210 |
| 2026-04-24 11:45 | 5.11 | 55 | 2760 (2004) | 66 (2006) | 334 | 75 | 91 | 107 | 113 | 200 | 364 | 422 | 738 | 1210 |
| 2026-04-24 10:45 | 5.09 | 52 | 2760 (2004) | 66 (2006) | 334 | 75 | 91 | 107 | 113 | 200 | 364 | 422 | 738 | 1210 |
| 2026-04-24 09:45 | 5.06 | 48 | 2760 (2004) | 66 (2006) | 334 | 75 | 91 | 107 | 113 | 200 | 364 | 422 | 738 | 1210 |
| 2026-04-24 08:45 | 5.06 | 48 | 2760 (2004) | 66 (2006) | 334 | 75 | 91 | 107 | 113 | 200 | 364 | 422 | 738 | 1210 |
| 2026-04-24 07:45 | 5.06 | 48 | 2760 (2004) | 66 (2006) | 334 | 75 | 91 | 107 | 113 | 200 | 364 | 422 | 738 | 1210 |
| 2026-04-24 06:45 | 5.05 | 47 | 2760 (2004) | 66 (2006) | 334 | 75 | 91 | 107 | 113 | 200 | 364 | 422 | 738 | 1210 |
| 2026-04-24 05:45 | 5.06 | 48 | 2760 (2004) | 66 (2006) | 334 | 75 | 91 | 107 | 113 | 200 | 364 | 422 | 738 | 1210 |
| 2026-04-24 04:45 | 5.06 | 48 | 2760 (2004) | 66 (2006) | 334 | 75 | 91 | 107 | 113 | 200 | 364 | 422 | 738 | 1210 |
| 2026-04-24 03:45 | 5.07 | 50 | 2760 (2004) | 66 (2006) | 334 | 75 | 91 | 107 | 113 | 200 | 364 | 422 | 738 | 1210 |
| 2026-04-24 02:45 | 5.06 | 48 | 2760 (2004) | 66 (2006) | 334 | 75 | 91 | 107 | 113 | 200 | 364 | 422 | 738 | 1210 |
| 2026-04-24 01:45 | 5.06 | 48 | 2760 (2004) | 66 (2006) | 334 | 75 | 91 | 107 | 113 | 200 | 364 | 422 | 738 | 1210 |
| 2026-04-24 00:45 | 5.06 | 48 | 2760 (2004) | 66 (2006) | 334 | 75 | 91 | 107 | 113 | 200 | 364 | 422 | 738 | 1210 |
| 2026-04-23 23:45 | 5.06 | 48 | 2760 (2004) | 66 (2006) | 334 | 75 | 91 | 107 | 113 | 200 | 364 | 422 | 738 | 1210 |
| 2026-04-23 22:45 | 5.07 | 50 | 1730 (2020) | 62 (2003) | 260 | 70 | 83 | 101 | 105 | 150 | 282 | 313 | 637 | 781 |
| 2026-04-23 21:45 | 5.07 | 50 | 1730 (2020) | 62 (2003) | 260 | 70 | 83 | 101 | 105 | 150 | 282 | 313 | 637 | 781 |
| 2026-04-23 20:45 | 5.08 | 51 | 1730 (2020) | 62 (2003) | 260 | 70 | 83 | 101 | 105 | 150 | 282 | 313 | 637 | 781 |
| 2026-04-23 19:45 | 5.08 | 51 | 1730 (2020) | 62 (2003) | 260 | 70 | 83 | 101 | 105 | 150 | 282 | 313 | 637 | 781 |
| 2026-04-23 18:45 | 5.08 | 51 | 1730 (2020) | 62 (2003) | 260 | 70 | 83 | 101 | 105 | 150 | 282 | 313 | 637 | 781 |
| 2026-04-23 17:45 | 5.05 | 47 | 1730 (2020) | 62 (2003) | 260 | 70 | 83 | 101 | 105 | 150 | 282 | 313 | 637 | 781 |
| 2026-04-23 16:45 | 5.06 | 48 | 1730 (2020) | 62 (2003) | 260 | 70 | 83 | 101 | 105 | 150 | 282 | 313 | 637 | 781 |
| 2026-04-23 15:45 | 5.06 | 48 | 1730 (2020) | 62 (2003) | 260 | 70 | 83 | 101 | 105 | 150 | 282 | 313 | 637 | 781 |
| 2026-04-23 14:45 | 5.05 | 47 | 1730 (2020) | 62 (2003) | 260 | 70 | 83 | 101 | 105 | 150 | 282 | 313 | 637 | 781 |
| 2026-04-23 13:45 | 5.06 | 48 | 1730 (2020) | 62 (2003) | 260 | 70 | 83 | 101 | 105 | 150 | 282 | 313 | 637 | 781 |
| 2026-04-23 12:45 | 5.06 | 48 | 1730 (2020) | 62 (2003) | 260 | 70 | 83 | 101 | 105 | 150 | 282 | 313 | 637 | 781 |
| 2026-04-23 11:45 | 5.05 | 47 | 1730 (2020) | 62 (2003) | 260 | 70 | 83 | 101 | 105 | 150 | 282 | 313 | 637 | 781 |
| 2026-04-23 10:45 | 5.05 | 47 | 1730 (2020) | 62 (2003) | 260 | 70 | 83 | 101 | 105 | 150 | 282 | 313 | 637 | 781 |
| 2026-04-23 09:45 | 5.04 | 46 | 1730 (2020) | 62 (2003) | 260 | 70 | 83 | 101 | 105 | 150 | 282 | 313 | 637 | 781 |
| 2026-04-23 08:45 | 5.05 | 47 | 1730 (2020) | 62 (2003) | 260 | 70 | 83 | 101 | 105 | 150 | 282 | 313 | 637 | 781 |
| 2026-04-23 07:45 | 5.06 | 73 | 1730 (2020) | 62 (2003) | 260 | 70 | 83 | 101 | 105 | 150 | 282 | 313 | 637 | 781 |
| 2026-04-23 06:45 | 5.07 | 75 | 1730 (2020) | 62 (2003) | 260 | 70 | 83 | 101 | 105 | 150 | 282 | 313 | 637 | 781 |
| 2026-04-23 05:45 | 5.06 | 73 | 1730 (2020) | 62 (2003) | 260 | 70 | 83 | 101 | 105 | 150 | 282 | 313 | 637 | 781 |
| 2026-04-23 04:45 | 5.07 | 75 | 1730 (2020) | 62 (2003) | 260 | 70 | 83 | 101 | 105 | 150 | 282 | 313 | 637 | 781 |
| 2026-04-23 03:45 | 5.07 | 75 | 1730 (2020) | 62 (2003) | 260 | 70 | 83 | 101 | 105 | 150 | 282 | 313 | 637 | 781 |
| 2026-04-23 02:45 | 5.07 | 75 | 1730 (2020) | 62 (2003) | 260 | 70 | 83 | 101 | 105 | 150 | 282 | 313 | 637 | 781 |
| 2026-04-23 01:45 | 5.07 | 75 | 1730 (2020) | 62 (2003) | 260 | 70 | 83 | 101 | 105 | 150 | 282 | 313 | 637 | 781 |
| 2026-04-23 00:45 | 5.06 | 73 | 1730 (2020) | 62 (2003) | 260 | 70 | 83 | 101 | 105 | 150 | 282 | 313 | 637 | 781 |
| 2026-04-22 23:45 | 5.07 | 75 | 1730 (2020) | 62 (2003) | 260 | 70 | 83 | 101 | 105 | 150 | 282 | 313 | 637 | 781 |
| 2026-04-22 22:45 | 5.07 | 75 | 2060 (2017) | 61 (2003) | 310 | 82 | 87 | 109 | 116 | 145 | 318 | 328 | 884 | 1470 |
| 2026-04-22 21:45 | 5.07 | 75 | 2060 (2017) | 61 (2003) | 310 | 82 | 87 | 109 | 116 | 145 | 318 | 328 | 884 | 1470 |
| 2026-04-22 20:45 | 5.06 | 73 | 2060 (2017) | 61 (2003) | 310 | 82 | 87 | 109 | 116 | 145 | 318 | 328 | 884 | 1470 |
| 2026-04-22 19:45 | 5.07 | 75 | 2060 (2017) | 61 (2003) | 310 | 82 | 87 | 109 | 116 | 145 | 318 | 328 | 884 | 1470 |
| 2026-04-22 18:45 | 5.07 | 75 | 2060 (2017) | 61 (2003) | 310 | 82 | 87 | 109 | 116 | 145 | 318 | 328 | 884 | 1470 |
| 2026-04-22 17:45 | 5.06 | 73 | 2060 (2017) | 61 (2003) | 310 | 82 | 87 | 109 | 116 | 145 | 318 | 328 | 884 | 1470 |
| 2026-04-22 16:45 | 5.07 | 75 | 2060 (2017) | 61 (2003) | 310 | 82 | 87 | 109 | 116 | 145 | 318 | 328 | 884 | 1470 |
| 2026-04-22 15:45 | 5.07 | 75 | 2060 (2017) | 61 (2003) | 310 | 82 | 87 | 109 | 116 | 145 | 318 | 328 | 884 | 1470 |
| 2026-04-22 14:45 | 5.07 | 75 | 2060 (2017) | 61 (2003) | 310 | 82 | 87 | 109 | 116 | 145 | 318 | 328 | 884 | 1470 |
| 2026-04-22 13:45 | 5.07 | 75 | 2060 (2017) | 61 (2003) | 310 | 82 | 87 | 109 | 116 | 145 | 318 | 328 | 884 | 1470 |
| 2026-04-22 12:45 | 5.08 | 76 | 2060 (2017) | 61 (2003) | 310 | 82 | 87 | 109 | 116 | 145 | 318 | 328 | 884 | 1470 |
| 2026-04-22 11:45 | 5.06 | 73 | 2060 (2017) | 61 (2003) | 310 | 82 | 87 | 109 | 116 | 145 | 318 | 328 | 884 | 1470 |
| 2026-04-22 10:45 | 5.08 | 76 | 2060 (2017) | 61 (2003) | 310 | 82 | 87 | 109 | 116 | 145 | 318 | 328 | 884 | 1470 |
| 2026-04-22 09:45 | 5.07 | 75 | 2060 (2017) | 61 (2003) | 310 | 82 | 87 | 109 | 116 | 145 | 318 | 328 | 884 | 1470 |
| 2026-04-22 08:45 | 5.08 | 76 | 2060 (2017) | 61 (2003) | 310 | 82 | 87 | 109 | 116 | 145 | 318 | 328 | 884 | 1470 |
| 2026-04-22 07:45 | 5.09 | 78 | 2060 (2017) | 61 (2003) | 310 | 82 | 87 | 109 | 116 | 145 | 318 | 328 | 884 | 1470 |
| 2026-04-22 06:45 | 5.08 | 76 | 2060 (2017) | 61 (2003) | 310 | 82 | 87 | 109 | 116 | 145 | 318 | 328 | 884 | 1470 |
| 2026-04-22 05:45 | 5.09 | 78 | 2060 (2017) | 61 (2003) | 310 | 82 | 87 | 109 | 116 | 145 | 318 | 328 | 884 | 1470 |
| 2026-04-22 04:45 | 5.09 | 78 | 2060 (2017) | 61 (2003) | 310 | 82 | 87 | 109 | 116 | 145 | 318 | 328 | 884 | 1470 |
| 2026-04-22 03:45 | 5.08 | 76 | 2060 (2017) | 61 (2003) | 310 | 82 | 87 | 109 | 116 | 145 | 318 | 328 | 884 | 1470 |
| 2026-04-22 02:45 | 5.08 | 76 | 2060 (2017) | 61 (2003) | 310 | 82 | 87 | 109 | 116 | 145 | 318 | 328 | 884 | 1470 |
| 2026-04-22 01:45 | 5.09 | 78 | 2060 (2017) | 61 (2003) | 310 | 82 | 87 | 109 | 116 | 145 | 318 | 328 | 884 | 1470 |
| 2026-04-22 00:45 | 5.09 | 78 | 2060 (2017) | 61 (2003) | 310 | 82 | 87 | 109 | 116 | 145 | 318 | 328 | 884 | 1470 |
| 2026-04-21 23:45 | 5.09 | 78 | 2060 (2017) | 61 (2003) | 310 | 82 | 87 | 109 | 116 | 145 | 318 | 328 | 884 | 1470 |
| 2026-04-21 22:45 | 5.09 | 78 | 1960 (2011) | 66 (2003) | 274 | 87 | 95 | 112 | 122 | 151 | 275 | 314 | 489 | 1340 |
| 2026-04-21 21:45 | 5.09 | 78 | 1960 (2011) | 66 (2003) | 274 | 87 | 95 | 112 | 122 | 151 | 275 | 314 | 489 | 1340 |
| 2026-04-21 20:45 | 5.09 | 78 | 1960 (2011) | 66 (2003) | 274 | 87 | 95 | 112 | 122 | 151 | 275 | 314 | 489 | 1340 |
| 2026-04-21 19:45 | 5.09 | 78 | 1960 (2011) | 66 (2003) | 274 | 87 | 95 | 112 | 122 | 151 | 275 | 314 | 489 | 1340 |
| 2026-04-21 18:45 | 5.10 | 80 | 1960 (2011) | 66 (2003) | 274 | 87 | 95 | 112 | 122 | 151 | 275 | 314 | 489 | 1340 |
| 2026-04-21 17:45 | 5.10 | 80 | 1960 (2011) | 66 (2003) | 274 | 87 | 95 | 112 | 122 | 151 | 275 | 314 | 489 | 1340 |
| 2026-04-21 16:45 | 5.10 | 80 | 1960 (2011) | 66 (2003) | 274 | 87 | 95 | 112 | 122 | 151 | 275 | 314 | 489 | 1340 |
| 2026-04-21 15:45 | 5.10 | 80 | 1960 (2011) | 66 (2003) | 274 | 87 | 95 | 112 | 122 | 151 | 275 | 314 | 489 | 1340 |
| 2026-04-21 14:45 | 5.10 | 80 | 1960 (2011) | 66 (2003) | 274 | 87 | 95 | 112 | 122 | 151 | 275 | 314 | 489 | 1340 |
| 2026-04-21 13:45 | 5.10 | 80 | 1960 (2011) | 66 (2003) | 274 | 87 | 95 | 112 | 122 | 151 | 275 | 314 | 489 | 1340 |
| 2026-04-21 12:45 | 5.11 | 82 | 1960 (2011) | 66 (2003) | 274 | 87 | 95 | 112 | 122 | 151 | 275 | 314 | 489 | 1340 |
| 2026-04-21 11:45 | 5.12 | 83 | 1960 (2011) | 66 (2003) | 274 | 87 | 95 | 112 | 122 | 151 | 275 | 314 | 489 | 1340 |
| 2026-04-21 10:45 | 5.11 | 82 | 1960 (2011) | 66 (2003) | 274 | 87 | 95 | 112 | 122 | 151 | 275 | 314 | 489 | 1340 |
| 2026-04-21 09:45 | 5.11 | 82 | 1960 (2011) | 66 (2003) | 274 | 87 | 95 | 112 | 122 | 151 | 275 | 314 | 489 | 1340 |
| 2026-04-21 08:45 | 5.11 | 82 | 1960 (2011) | 66 (2003) | 274 | 87 | 95 | 112 | 122 | 151 | 275 | 314 | 489 | 1340 |
| 2026-04-21 07:45 | 5.12 | 83 | 1960 (2011) | 66 (2003) | 274 | 87 | 95 | 112 | 122 | 151 | 275 | 314 | 489 | 1340 |
| 2026-04-21 06:45 | 5.11 | 82 | 1960 (2011) | 66 (2003) | 274 | 87 | 95 | 112 | 122 | 151 | 275 | 314 | 489 | 1340 |
| 2026-04-21 05:45 | 5.12 | 83 | 1960 (2011) | 66 (2003) | 274 | 87 | 95 | 112 | 122 | 151 | 275 | 314 | 489 | 1340 |
| 2026-04-21 04:45 | 5.11 | 82 | 1960 (2011) | 66 (2003) | 274 | 87 | 95 | 112 | 122 | 151 | 275 | 314 | 489 | 1340 |
| 2026-04-21 03:45 | 5.12 | 83 | 1960 (2011) | 66 (2003) | 274 | 87 | 95 | 112 | 122 | 151 | 275 | 314 | 489 | 1340 |
| 2026-04-21 02:45 | 5.13 | 85 | 1960 (2011) | 66 (2003) | 274 | 87 | 95 | 112 | 122 | 151 | 275 | 314 | 489 | 1340 |
| 2026-04-21 01:45 | 5.12 | 83 | 1960 (2011) | 66 (2003) | 274 | 87 | 95 | 112 | 122 | 151 | 275 | 314 | 489 | 1340 |
| 2026-04-21 00:45 | 5.13 | 85 | 1960 (2011) | 66 (2003) | 274 | 87 | 95 | 112 | 122 | 151 | 275 | 314 | 489 | 1340 |
| 2026-04-20 23:45 | 5.12 | 83 | 1960 (2011) | 66 (2003) | 274 | 87 | 95 | 112 | 122 | 151 | 275 | 314 | 489 | 1340 |
| 2026-04-20 22:45 | 5.13 | 85 | 1420 (2022) | 78 (2003) | 261 | 86 | 99 | 114 | 116 | 156 | 300 | 330 | 699 | 927 |
| 2026-04-20 21:45 | 5.12 | 83 | 1420 (2022) | 78 (2003) | 261 | 86 | 99 | 114 | 116 | 156 | 300 | 330 | 699 | 927 |
| 2026-04-20 20:45 | 5.13 | 85 | 1420 (2022) | 78 (2003) | 261 | 86 | 99 | 114 | 116 | 156 | 300 | 330 | 699 | 927 |
| 2026-04-20 19:45 | 5.13 | 85 | 1420 (2022) | 78 (2003) | 261 | 86 | 99 | 114 | 116 | 156 | 300 | 330 | 699 | 927 |
| 2026-04-20 18:45 | 5.13 | 85 | 1420 (2022) | 78 (2003) | 261 | 86 | 99 | 114 | 116 | 156 | 300 | 330 | 699 | 927 |
| 2026-04-20 17:45 | 5.14 | 87 | 1420 (2022) | 78 (2003) | 261 | 86 | 99 | 114 | 116 | 156 | 300 | 330 | 699 | 927 |
| 2026-04-20 16:45 | 5.13 | 85 | 1420 (2022) | 78 (2003) | 261 | 86 | 99 | 114 | 116 | 156 | 300 | 330 | 699 | 927 |
| 2026-04-20 15:45 | 5.14 | 87 | 1420 (2022) | 78 (2003) | 261 | 86 | 99 | 114 | 116 | 156 | 300 | 330 | 699 | 927 |
| 2026-04-20 14:45 | 5.14 | 87 | 1420 (2022) | 78 (2003) | 261 | 86 | 99 | 114 | 116 | 156 | 300 | 330 | 699 | 927 |
| 2026-04-20 13:45 | 5.15 | 89 | 1420 (2022) | 78 (2003) | 261 | 86 | 99 | 114 | 116 | 156 | 300 | 330 | 699 | 927 |
| 2026-04-20 12:45 | 5.15 | 89 | 1420 (2022) | 78 (2003) | 261 | 86 | 99 | 114 | 116 | 156 | 300 | 330 | 699 | 927 |
| 2026-04-20 11:45 | 5.14 | 87 | 1420 (2022) | 78 (2003) | 261 | 86 | 99 | 114 | 116 | 156 | 300 | 330 | 699 | 927 |
| 2026-04-20 10:45 | 5.16 | 91 | 1420 (2022) | 78 (2003) | 261 | 86 | 99 | 114 | 116 | 156 | 300 | 330 | 699 | 927 |
| 2026-04-20 09:45 | 5.16 | 91 | 1420 (2022) | 78 (2003) | 261 | 86 | 99 | 114 | 116 | 156 | 300 | 330 | 699 | 927 |
| 2026-04-20 08:45 | 5.17 | 93 | 1420 (2022) | 78 (2003) | 261 | 86 | 99 | 114 | 116 | 156 | 300 | 330 | 699 | 927 |
| 2026-04-20 07:45 | 5.16 | 91 | 1420 (2022) | 78 (2003) | 261 | 86 | 99 | 114 | 116 | 156 | 300 | 330 | 699 | 927 |
| 2026-04-20 06:45 | 5.17 | 93 | 1420 (2022) | 78 (2003) | 261 | 86 | 99 | 114 | 116 | 156 | 300 | 330 | 699 | 927 |
| 2026-04-20 05:45 | 5.17 | 93 | 1420 (2022) | 78 (2003) | 261 | 86 | 99 | 114 | 116 | 156 | 300 | 330 | 699 | 927 |
| 2026-04-20 04:45 | 5.18 | 95 | 1420 (2022) | 78 (2003) | 261 | 86 | 99 | 114 | 116 | 156 | 300 | 330 | 699 | 927 |
| 2026-04-20 03:45 | 5.18 | 95 | 1420 (2022) | 78 (2003) | 261 | 86 | 99 | 114 | 116 | 156 | 300 | 330 | 699 | 927 |
| 2026-04-20 02:45 | 5.17 | 93 | 1420 (2022) | 78 (2003) | 261 | 86 | 99 | 114 | 116 | 156 | 300 | 330 | 699 | 927 |
| 2026-04-20 01:45 | 5.17 | 93 | 1420 (2022) | 78 (2003) | 261 | 86 | 99 | 114 | 116 | 156 | 300 | 330 | 699 | 927 |
| 2026-04-20 00:45 | 5.18 | 95 | 1420 (2022) | 78 (2003) | 261 | 86 | 99 | 114 | 116 | 156 | 300 | 330 | 699 | 927 |
| 2026-04-19 23:45 | 5.18 | 95 | 1420 (2022) | 78 (2003) | 261 | 86 | 99 | 114 | 116 | 156 | 300 | 330 | 699 | 927 |
| 2026-04-19 22:45 | 5.18 | 95 | 1080 (2019) | 67 (2003) | 232 | 70 | 105 | 113 | 122 | 169 | 250 | 302 | 467 | 703 |
| 2026-04-19 21:45 | 5.18 | 95 | 1080 (2019) | 67 (2003) | 232 | 70 | 105 | 113 | 122 | 169 | 250 | 302 | 467 | 703 |
| 2026-04-19 20:45 | 5.18 | 95 | 1080 (2019) | 67 (2003) | 232 | 70 | 105 | 113 | 122 | 169 | 250 | 302 | 467 | 703 |
| 2026-04-19 19:45 | 5.18 | 95 | 1080 (2019) | 67 (2003) | 232 | 70 | 105 | 113 | 122 | 169 | 250 | 302 | 467 | 703 |
| 2026-04-19 18:45 | 5.18 | 95 | 1080 (2019) | 67 (2003) | 232 | 70 | 105 | 113 | 122 | 169 | 250 | 302 | 467 | 703 |
| 2026-04-19 17:45 | 5.18 | 95 | 1080 (2019) | 67 (2003) | 232 | 70 | 105 | 113 | 122 | 169 | 250 | 302 | 467 | 703 |
| 2026-04-19 16:45 | 5.20 | 99 | 1080 (2019) | 67 (2003) | 232 | 70 | 105 | 113 | 122 | 169 | 250 | 302 | 467 | 703 |
| 2026-04-19 15:45 | 5.20 | 99 | 1080 (2019) | 67 (2003) | 232 | 70 | 105 | 113 | 122 | 169 | 250 | 302 | 467 | 703 |
| 2026-04-19 14:45 | 5.21 | 101 | 1080 (2019) | 67 (2003) | 232 | 70 | 105 | 113 | 122 | 169 | 250 | 302 | 467 | 703 |
| 2026-04-19 13:45 | 5.22 | 103 | 1080 (2019) | 67 (2003) | 232 | 70 | 105 | 113 | 122 | 169 | 250 | 302 | 467 | 703 |
| 2026-04-19 12:45 | 5.22 | 103 | 1080 (2019) | 67 (2003) | 232 | 70 | 105 | 113 | 122 | 169 | 250 | 302 | 467 | 703 |
| 2026-04-19 11:45 | 5.23 | 105 | 1080 (2019) | 67 (2003) | 232 | 70 | 105 | 113 | 122 | 169 | 250 | 302 | 467 | 703 |
| 2026-04-19 10:45 | 5.23 | 105 | 1080 (2019) | 67 (2003) | 232 | 70 | 105 | 113 | 122 | 169 | 250 | 302 | 467 | 703 |
| 2026-04-19 09:45 | 5.24 | 107 | 1080 (2019) | 67 (2003) | 232 | 70 | 105 | 113 | 122 | 169 | 250 | 302 | 467 | 703 |
| 2026-04-19 08:45 | 5.24 | 107 | 1080 (2019) | 67 (2003) | 232 | 70 | 105 | 113 | 122 | 169 | 250 | 302 | 467 | 703 |
| 2026-04-19 07:45 | 5.25 | 109 | 1080 (2019) | 67 (2003) | 232 | 70 | 105 | 113 | 122 | 169 | 250 | 302 | 467 | 703 |
| 2026-04-19 06:45 | 5.26 | 111 | 1080 (2019) | 67 (2003) | 232 | 70 | 105 | 113 | 122 | 169 | 250 | 302 | 467 | 703 |
| 2026-04-19 05:45 | 5.26 | 111 | 1080 (2019) | 67 (2003) | 232 | 70 | 105 | 113 | 122 | 169 | 250 | 302 | 467 | 703 |
| 2026-04-19 04:45 | 5.25 | 109 | 1080 (2019) | 67 (2003) | 232 | 70 | 105 | 113 | 122 | 169 | 250 | 302 | 467 | 703 |
| 2026-04-19 03:45 | 5.27 | 113 | 1080 (2019) | 67 (2003) | 232 | 70 | 105 | 113 | 122 | 169 | 250 | 302 | 467 | 703 |
| 2026-04-19 02:45 | 5.28 | 115 | 1080 (2019) | 67 (2003) | 232 | 70 | 105 | 113 | 122 | 169 | 250 | 302 | 467 | 703 |
| 2026-04-19 01:45 | 5.27 | 113 | 1080 (2019) | 67 (2003) | 232 | 70 | 105 | 113 | 122 | 169 | 250 | 302 | 467 | 703 |
| 2026-04-19 00:45 | 5.27 | 113 | 1080 (2019) | 67 (2003) | 232 | 70 | 105 | 113 | 122 | 169 | 250 | 302 | 467 | 703 |
| 2026-04-18 23:45 | 5.28 | 115 | 1080 (2019) | 67 (2003) | 232 | 70 | 105 | 113 | 122 | 169 | 250 | 302 | 467 | 703 |
| 2026-04-18 22:45 | 5.29 | 117 | 1020 (2019) | 61 (2003) | 236 | 74 | 93 | 122 | 127 | 188 | 282 | 287 | 360 | 913 |
| 2026-04-18 21:45 | 5.28 | 115 | 1020 (2019) | 61 (2003) | 236 | 74 | 93 | 122 | 127 | 188 | 282 | 287 | 360 | 913 |
| 2026-04-18 20:45 | 5.28 | 115 | 1020 (2019) | 61 (2003) | 236 | 74 | 93 | 122 | 127 | 188 | 282 | 287 | 360 | 913 |
| 2026-04-18 19:45 | 5.27 | 113 | 1020 (2019) | 61 (2003) | 236 | 74 | 93 | 122 | 127 | 188 | 282 | 287 | 360 | 913 |
| 2026-04-18 18:45 | 5.28 | 115 | 1020 (2019) | 61 (2003) | 236 | 74 | 93 | 122 | 127 | 188 | 282 | 287 | 360 | 913 |
| 2026-04-18 17:45 | 5.28 | 115 | 1020 (2019) | 61 (2003) | 236 | 74 | 93 | 122 | 127 | 188 | 282 | 287 | 360 | 913 |
| 2026-04-18 16:45 | 5.26 | 111 | 1020 (2019) | 61 (2003) | 236 | 74 | 93 | 122 | 127 | 188 | 282 | 287 | 360 | 913 |
| 2026-04-18 15:45 | 5.27 | 113 | 1020 (2019) | 61 (2003) | 236 | 74 | 93 | 122 | 127 | 188 | 282 | 287 | 360 | 913 |
| 2026-04-18 14:45 | 5.26 | 111 | 1020 (2019) | 61 (2003) | 236 | 74 | 93 | 122 | 127 | 188 | 282 | 287 | 360 | 913 |
| 2026-04-18 13:45 | 5.26 | 111 | 1020 (2019) | 61 (2003) | 236 | 74 | 93 | 122 | 127 | 188 | 282 | 287 | 360 | 913 |
| 2026-04-18 12:45 | 5.24 | 107 | 1020 (2019) | 61 (2003) | 236 | 74 | 93 | 122 | 127 | 188 | 282 | 287 | 360 | 913 |
| 2026-04-18 11:45 | 5.24 | 107 | 1020 (2019) | 61 (2003) | 236 | 74 | 93 | 122 | 127 | 188 | 282 | 287 | 360 | 913 |
| 2026-04-18 10:45 | 5.25 | 109 | 1020 (2019) | 61 (2003) | 236 | 74 | 93 | 122 | 127 | 188 | 282 | 287 | 360 | 913 |
| 2026-04-18 09:45 | 5.24 | 107 | 1020 (2019) | 61 (2003) | 236 | 74 | 93 | 122 | 127 | 188 | 282 | 287 | 360 | 913 |
| 2026-04-18 08:45 | 5.22 | 103 | 1020 (2019) | 61 (2003) | 236 | 74 | 93 | 122 | 127 | 188 | 282 | 287 | 360 | 913 |
| 2026-04-18 07:45 | 5.22 | 103 | 1020 (2019) | 61 (2003) | 236 | 74 | 93 | 122 | 127 | 188 | 282 | 287 | 360 | 913 |
| 2026-04-18 06:45 | 5.21 | 101 | 1020 (2019) | 61 (2003) | 236 | 74 | 93 | 122 | 127 | 188 | 282 | 287 | 360 | 913 |
| 2026-04-18 05:45 | 5.22 | 103 | 1020 (2019) | 61 (2003) | 236 | 74 | 93 | 122 | 127 | 188 | 282 | 287 | 360 | 913 |
| 2026-04-18 04:45 | 5.20 | 99 | 1020 (2019) | 61 (2003) | 236 | 74 | 93 | 122 | 127 | 188 | 282 | 287 | 360 | 913 |
| 2026-04-18 03:45 | 5.22 | 103 | 1020 (2019) | 61 (2003) | 236 | 74 | 93 | 122 | 127 | 188 | 282 | 287 | 360 | 913 |
| 2026-04-18 02:45 | 5.22 | 103 | 1020 (2019) | 61 (2003) | 236 | 74 | 93 | 122 | 127 | 188 | 282 | 287 | 360 | 913 |
| 2026-04-18 01:45 | 5.21 | 101 | 1020 (2019) | 61 (2003) | 236 | 74 | 93 | 122 | 127 | 188 | 282 | 287 | 360 | 913 |
| 2026-04-18 00:45 | 5.22 | 103 | 1020 (2019) | 61 (2003) | 236 | 74 | 93 | 122 | 127 | 188 | 282 | 287 | 360 | 913 |
| 2026-04-17 23:45 | 5.22 | 103 | 1020 (2019) | 61 (2003) | 236 | 74 | 93 | 122 | 127 | 188 | 282 | 287 | 360 | 913 |
| 2026-04-17 22:45 | 5.23 | 105 | 1230 (2022) | 62 (2003) | 250 | 78 | 96 | 131 | 134 | 192 | 320 | 364 | 408 | 534 |
| 2026-04-17 21:45 | 5.24 | 107 | 1230 (2022) | 62 (2003) | 250 | 78 | 96 | 131 | 134 | 192 | 320 | 364 | 408 | 534 |
| 2026-04-17 20:45 | 5.24 | 107 | 1230 (2022) | 62 (2003) | 250 | 78 | 96 | 131 | 134 | 192 | 320 | 364 | 408 | 534 |
| 2026-04-17 19:45 | 5.24 | 107 | 1230 (2022) | 62 (2003) | 250 | 78 | 96 | 131 | 134 | 192 | 320 | 364 | 408 | 534 |
| 2026-04-17 18:45 | 5.24 | 107 | 1230 (2022) | 62 (2003) | 250 | 78 | 96 | 131 | 134 | 192 | 320 | 364 | 408 | 534 |
| 2026-04-17 17:45 | 5.25 | 109 | 1230 (2022) | 62 (2003) | 250 | 78 | 96 | 131 | 134 | 192 | 320 | 364 | 408 | 534 |
| 2026-04-17 16:45 | 5.25 | 109 | 1230 (2022) | 62 (2003) | 250 | 78 | 96 | 131 | 134 | 192 | 320 | 364 | 408 | 534 |
| 2026-04-17 15:45 | 5.26 | 111 | 1230 (2022) | 62 (2003) | 250 | 78 | 96 | 131 | 134 | 192 | 320 | 364 | 408 | 534 |
| 2026-04-17 14:45 | 5.27 | 113 | 1230 (2022) | 62 (2003) | 250 | 78 | 96 | 131 | 134 | 192 | 320 | 364 | 408 | 534 |
| 2026-04-17 13:45 | 5.28 | 115 | 1230 (2022) | 62 (2003) | 250 | 78 | 96 | 131 | 134 | 192 | 320 | 364 | 408 | 534 |
| 2026-04-17 12:45 | 5.29 | 117 | 1230 (2022) | 62 (2003) | 250 | 78 | 96 | 131 | 134 | 192 | 320 | 364 | 408 | 534 |
| 2026-04-17 11:45 | 5.30 | 120 | 1230 (2022) | 62 (2003) | 250 | 78 | 96 | 131 | 134 | 192 | 320 | 364 | 408 | 534 |
| 2026-04-17 10:45 | 5.30 | 120 | 1230 (2022) | 62 (2003) | 250 | 78 | 96 | 131 | 134 | 192 | 320 | 364 | 408 | 534 |
| 2026-04-17 09:45 | 5.30 | 120 | 1230 (2022) | 62 (2003) | 250 | 78 | 96 | 131 | 134 | 192 | 320 | 364 | 408 | 534 |
| 2026-04-17 08:45 | 5.31 | 122 | 1230 (2022) | 62 (2003) | 250 | 78 | 96 | 131 | 134 | 192 | 320 | 364 | 408 | 534 |
| 2026-04-17 07:45 | 5.33 | 127 | 1230 (2022) | 62 (2003) | 250 | 78 | 96 | 131 | 134 | 192 | 320 | 364 | 408 | 534 |
| 2026-04-17 06:45 | 5.31 | 122 | 1230 (2022) | 62 (2003) | 250 | 78 | 96 | 131 | 134 | 192 | 320 | 364 | 408 | 534 |
| 2026-04-17 05:45 | 5.33 | 127 | 1230 (2022) | 62 (2003) | 250 | 78 | 96 | 131 | 134 | 192 | 320 | 364 | 408 | 534 |
| 2026-04-17 04:45 | 5.32 | 124 | 1230 (2022) | 62 (2003) | 250 | 78 | 96 | 131 | 134 | 192 | 320 | 364 | 408 | 534 |
| 2026-04-17 03:45 | 5.34 | 129 | 1230 (2022) | 62 (2003) | 250 | 78 | 96 | 131 | 134 | 192 | 320 | 364 | 408 | 534 |
| 2026-04-17 02:45 | 5.35 | 131 | 1230 (2022) | 62 (2003) | 250 | 78 | 96 | 131 | 134 | 192 | 320 | 364 | 408 | 534 |
| 2026-04-17 01:45 | 5.35 | 131 | 1230 (2022) | 62 (2003) | 250 | 78 | 96 | 131 | 134 | 192 | 320 | 364 | 408 | 534 |
| 2026-04-17 00:45 | 5.35 | 131 | 1230 (2022) | 62 (2003) | 250 | 78 | 96 | 131 | 134 | 192 | 320 | 364 | 408 | 534 |
| 2026-04-16 23:45 | 5.37 | 136 | 1230 (2022) | 62 (2003) | 250 | 78 | 96 | 131 | 134 | 192 | 320 | 364 | 408 | 534 |
| 2026-04-16 22:45 | 5.39 | 141 | 1810 (2022) | 63 (2003) | 323 | 81 | 100 | 131 | 147 | 211 | 423 | 489 | 638 | 823 |
| 2026-04-16 21:45 | 5.38 | 139 | 1810 (2022) | 63 (2003) | 323 | 81 | 100 | 131 | 147 | 211 | 423 | 489 | 638 | 823 |
| 2026-04-16 20:45 | 5.41 | 146 | 1810 (2022) | 63 (2003) | 323 | 81 | 100 | 131 | 147 | 211 | 423 | 489 | 638 | 823 |
| 2026-04-16 19:45 | 5.41 | 146 | 1810 (2022) | 63 (2003) | 323 | 81 | 100 | 131 | 147 | 211 | 423 | 489 | 638 | 823 |
| 2026-04-16 18:45 | 5.41 | 146 | 1810 (2022) | 63 (2003) | 323 | 81 | 100 | 131 | 147 | 211 | 423 | 489 | 638 | 823 |
| 2026-04-16 17:45 | 5.43 | 151 | 1810 (2022) | 63 (2003) | 323 | 81 | 100 | 131 | 147 | 211 | 423 | 489 | 638 | 823 |
| 2026-04-16 16:45 | 5.47 | 162 | 1810 (2022) | 63 (2003) | 323 | 81 | 100 | 131 | 147 | 211 | 423 | 489 | 638 | 823 |
| 2026-04-16 15:45 | 5.45 | 156 | 1810 (2022) | 63 (2003) | 323 | 81 | 100 | 131 | 147 | 211 | 423 | 489 | 638 | 823 |
| 2026-04-16 14:45 | 5.48 | 165 | 1810 (2022) | 63 (2003) | 323 | 81 | 100 | 131 | 147 | 211 | 423 | 489 | 638 | 823 |
| 2026-04-16 13:45 | 5.49 | 167 | 1810 (2022) | 63 (2003) | 323 | 81 | 100 | 131 | 147 | 211 | 423 | 489 | 638 | 823 |
| 2026-04-16 12:45 | 5.49 | 167 | 1810 (2022) | 63 (2003) | 323 | 81 | 100 | 131 | 147 | 211 | 423 | 489 | 638 | 823 |
| 2026-04-16 11:45 | 5.48 | 165 | 1810 (2022) | 63 (2003) | 323 | 81 | 100 | 131 | 147 | 211 | 423 | 489 | 638 | 823 |
| 2026-04-16 10:45 | 5.46 | 159 | 1810 (2022) | 63 (2003) | 323 | 81 | 100 | 131 | 147 | 211 | 423 | 489 | 638 | 823 |
| 2026-04-16 09:45 | 5.46 | 159 | 1810 (2022) | 63 (2003) | 323 | 81 | 100 | 131 | 147 | 211 | 423 | 489 | 638 | 823 |
| 2026-04-16 08:45 | 5.43 | 151 | 1810 (2022) | 63 (2003) | 323 | 81 | 100 | 131 | 147 | 211 | 423 | 489 | 638 | 823 |
| 2026-04-16 07:45 | 5.43 | 151 | 1810 (2022) | 63 (2003) | 323 | 81 | 100 | 131 | 147 | 211 | 423 | 489 | 638 | 823 |
| 2026-04-16 06:45 | 5.42 | 149 | 1810 (2022) | 63 (2003) | 323 | 81 | 100 | 131 | 147 | 211 | 423 | 489 | 638 | 823 |
| 2026-04-16 05:45 | 5.35 | 131 | 1810 (2022) | 63 (2003) | 323 | 81 | 100 | 131 | 147 | 211 | 423 | 489 | 638 | 823 |
| 2026-04-16 04:45 | 5.29 | 117 | 1810 (2022) | 63 (2003) | 323 | 81 | 100 | 131 | 147 | 211 | 423 | 489 | 638 | 823 |
| 2026-04-16 03:45 | 5.25 | 109 | 1810 (2022) | 63 (2003) | 323 | 81 | 100 | 131 | 147 | 211 | 423 | 489 | 638 | 823 |
| 2026-04-16 02:45 | 5.19 | 97 | 1810 (2022) | 63 (2003) | 323 | 81 | 100 | 131 | 147 | 211 | 423 | 489 | 638 | 823 |
| 2026-04-16 01:45 | 5.14 | 87 | 1810 (2022) | 63 (2003) | 323 | 81 | 100 | 131 | 147 | 211 | 423 | 489 | 638 | 823 |
| 2026-04-16 00:45 | 5.11 | 82 | 1810 (2022) | 63 (2003) | 323 | 81 | 100 | 131 | 147 | 211 | 423 | 489 | 638 | 823 |
| 2026-04-15 23:45 | 5.09 | 78 | 1810 (2022) | 63 (2003) | 323 | 81 | 100 | 131 | 147 | 211 | 423 | 489 | 638 | 823 |
| 2026-04-15 22:45 | 5.07 | 75 | 1200 (1991) | 64 (2003) | 384 | 84 | 104 | 134 | 138 | 225 | 645 | 669 | 924 | 1190 |
| 2026-04-15 21:45 | 5.08 | 76 | 1200 (1991) | 64 (2003) | 384 | 84 | 104 | 134 | 138 | 225 | 645 | 669 | 924 | 1190 |
| 2026-04-15 20:45 | 5.08 | 76 | 1200 (1991) | 64 (2003) | 384 | 84 | 104 | 134 | 138 | 225 | 645 | 669 | 924 | 1190 |
| 2026-04-15 19:45 | 5.08 | 76 | 1200 (1991) | 64 (2003) | 384 | 84 | 104 | 134 | 138 | 225 | 645 | 669 | 924 | 1190 |
| 2026-04-15 18:45 | 5.08 | 76 | 1200 (1991) | 64 (2003) | 384 | 84 | 104 | 134 | 138 | 225 | 645 | 669 | 924 | 1190 |
| 2026-04-15 17:45 | 5.08 | 76 | 1200 (1991) | 64 (2003) | 384 | 84 | 104 | 134 | 138 | 225 | 645 | 669 | 924 | 1190 |
| 2026-04-15 16:45 | 5.09 | 78 | 1200 (1991) | 64 (2003) | 384 | 84 | 104 | 134 | 138 | 225 | 645 | 669 | 924 | 1190 |
| 2026-04-15 15:45 | 5.09 | 78 | 1200 (1991) | 64 (2003) | 384 | 84 | 104 | 134 | 138 | 225 | 645 | 669 | 924 | 1190 |
| 2026-04-15 14:45 | 5.09 | 78 | 1200 (1991) | 64 (2003) | 384 | 84 | 104 | 134 | 138 | 225 | 645 | 669 | 924 | 1190 |
| 2026-04-15 13:45 | 5.09 | 78 | 1200 (1991) | 64 (2003) | 384 | 84 | 104 | 134 | 138 | 225 | 645 | 669 | 924 | 1190 |
| 2026-04-15 12:45 | 5.10 | 80 | 1200 (1991) | 64 (2003) | 384 | 84 | 104 | 134 | 138 | 225 | 645 | 669 | 924 | 1190 |
| 2026-04-15 11:45 | 5.11 | 82 | 1200 (1991) | 64 (2003) | 384 | 84 | 104 | 134 | 138 | 225 | 645 | 669 | 924 | 1190 |
| 2026-04-15 10:45 | 5.10 | 80 | 1200 (1991) | 64 (2003) | 384 | 84 | 104 | 134 | 138 | 225 | 645 | 669 | 924 | 1190 |
| 2026-04-15 09:45 | 5.11 | 82 | 1200 (1991) | 64 (2003) | 384 | 84 | 104 | 134 | 138 | 225 | 645 | 669 | 924 | 1190 |
| 2026-04-15 08:45 | 5.10 | 80 | 1200 (1991) | 64 (2003) | 384 | 84 | 104 | 134 | 138 | 225 | 645 | 669 | 924 | 1190 |
| 2026-04-15 07:45 | 5.11 | 82 | 1200 (1991) | 64 (2003) | 384 | 84 | 104 | 134 | 138 | 225 | 645 | 669 | 924 | 1190 |
| 2026-04-15 06:45 | 5.11 | 82 | 1200 (1991) | 64 (2003) | 384 | 84 | 104 | 134 | 138 | 225 | 645 | 669 | 924 | 1190 |
| 2026-04-15 05:45 | 5.11 | 82 | 1200 (1991) | 64 (2003) | 384 | 84 | 104 | 134 | 138 | 225 | 645 | 669 | 924 | 1190 |
| 2026-04-15 04:45 | 5.11 | 82 | 1200 (1991) | 64 (2003) | 384 | 84 | 104 | 134 | 138 | 225 | 645 | 669 | 924 | 1190 |
| 2026-04-15 03:45 | 5.10 | 80 | 1200 (1991) | 64 (2003) | 384 | 84 | 104 | 134 | 138 | 225 | 645 | 669 | 924 | 1190 |
| 2026-04-15 02:45 | 5.12 | 83 | 1200 (1991) | 64 (2003) | 384 | 84 | 104 | 134 | 138 | 225 | 645 | 669 | 924 | 1190 |
| 2026-04-15 01:45 | 5.11 | 82 | 1200 (1991) | 64 (2003) | 384 | 84 | 104 | 134 | 138 | 225 | 645 | 669 | 924 | 1190 |
| 2026-04-15 00:45 | 5.11 | 82 | 1200 (1991) | 64 (2003) | 384 | 84 | 104 | 134 | 138 | 225 | 645 | 669 | 924 | 1190 |
| 2026-04-14 23:45 | 5.12 | 83 | 1200 (1991) | 64 (2003) | 384 | 84 | 104 | 134 | 138 | 225 | 645 | 669 | 924 | 1190 |
| 2026-04-14 22:45 | 5.11 | 82 | 2500 (1991) | 51 (2011) | 475 | 64 | 93 | 125 | 141 | 236 | 607 | 927 | 1150 | 1980 |
| 2026-04-14 21:45 | 5.11 | 82 | 2500 (1991) | 51 (2011) | 475 | 64 | 93 | 125 | 141 | 236 | 607 | 927 | 1150 | 1980 |
| 2026-04-14 20:45 | 5.11 | 82 | 2500 (1991) | 51 (2011) | 475 | 64 | 93 | 125 | 141 | 236 | 607 | 927 | 1150 | 1980 |
| 2026-04-14 19:45 | 5.12 | 83 | 2500 (1991) | 51 (2011) | 475 | 64 | 93 | 125 | 141 | 236 | 607 | 927 | 1150 | 1980 |
| 2026-04-14 18:45 | 5.11 | 82 | 2500 (1991) | 51 (2011) | 475 | 64 | 93 | 125 | 141 | 236 | 607 | 927 | 1150 | 1980 |
| 2026-04-14 17:45 | 5.10 | 80 | 2500 (1991) | 51 (2011) | 475 | 64 | 93 | 125 | 141 | 236 | 607 | 927 | 1150 | 1980 |
| 2026-04-14 16:45 | 5.11 | 82 | 2500 (1991) | 51 (2011) | 475 | 64 | 93 | 125 | 141 | 236 | 607 | 927 | 1150 | 1980 |
| 2026-04-14 15:45 | 5.12 | 83 | 2500 (1991) | 51 (2011) | 475 | 64 | 93 | 125 | 141 | 236 | 607 | 927 | 1150 | 1980 |
| 2026-04-14 14:45 | 5.11 | 82 | 2500 (1991) | 51 (2011) | 475 | 64 | 93 | 125 | 141 | 236 | 607 | 927 | 1150 | 1980 |
| 2026-04-14 13:45 | 5.11 | 82 | 2500 (1991) | 51 (2011) | 475 | 64 | 93 | 125 | 141 | 236 | 607 | 927 | 1150 | 1980 |
| 2026-04-14 12:45 | 5.13 | 85 | 2500 (1991) | 51 (2011) | 475 | 64 | 93 | 125 | 141 | 236 | 607 | 927 | 1150 | 1980 |
| 2026-04-14 11:45 | 5.12 | 83 | 2500 (1991) | 51 (2011) | 475 | 64 | 93 | 125 | 141 | 236 | 607 | 927 | 1150 | 1980 |
| 2026-04-14 09:45 | 5.13 | 85 | 2500 (1991) | 51 (2011) | 475 | 64 | 93 | 125 | 141 | 236 | 607 | 927 | 1150 | 1980 |
| 2026-04-14 08:45 | 5.13 | 85 | 2500 (1991) | 51 (2011) | 475 | 64 | 93 | 125 | 141 | 236 | 607 | 927 | 1150 | 1980 |
| 2026-04-14 07:45 | 5.13 | 85 | 2500 (1991) | 51 (2011) | 475 | 64 | 93 | 125 | 141 | 236 | 607 | 927 | 1150 | 1980 |
| 2026-04-14 06:45 | 5.12 | 83 | 2500 (1991) | 51 (2011) | 475 | 64 | 93 | 125 | 141 | 236 | 607 | 927 | 1150 | 1980 |
| 2026-04-14 05:45 | 5.13 | 85 | 2500 (1991) | 51 (2011) | 475 | 64 | 93 | 125 | 141 | 236 | 607 | 927 | 1150 | 1980 |
| 2026-04-14 04:45 | 5.13 | 85 | 2500 (1991) | 51 (2011) | 475 | 64 | 93 | 125 | 141 | 236 | 607 | 927 | 1150 | 1980 |
| 2026-04-14 03:45 | 5.14 | 87 | 2500 (1991) | 51 (2011) | 475 | 64 | 93 | 125 | 141 | 236 | 607 | 927 | 1150 | 1980 |
| 2026-04-14 02:45 | 5.12 | 83 | 2500 (1991) | 51 (2011) | 475 | 64 | 93 | 125 | 141 | 236 | 607 | 927 | 1150 | 1980 |
| 2026-04-14 01:45 | 5.13 | 85 | 2500 (1991) | 51 (2011) | 475 | 64 | 93 | 125 | 141 | 236 | 607 | 927 | 1150 | 1980 |
| 2026-04-14 00:45 | 5.12 | 83 | 2500 (1991) | 51 (2011) | 475 | 64 | 93 | 125 | 141 | 236 | 607 | 927 | 1150 | 1980 |
| 2026-04-13 23:45 | 5.13 | 85 | 2500 (1991) | 51 (2011) | 475 | 64 | 93 | 125 | 141 | 236 | 607 | 927 | 1150 | 1980 |
| 2026-04-13 22:45 | 5.13 | 85 | 6000 (1991) | 56 (2011) | 517 | 66 | 95 | 118 | 136 | 205 | 385 | 457 | 1150 | 2610 |
| 2026-04-13 21:45 | 5.14 | 87 | 6000 (1991) | 56 (2011) | 517 | 66 | 95 | 118 | 136 | 205 | 385 | 457 | 1150 | 2610 |
| 2026-04-13 20:45 | 5.13 | 85 | 6000 (1991) | 56 (2011) | 517 | 66 | 95 | 118 | 136 | 205 | 385 | 457 | 1150 | 2610 |
| 2026-04-13 19:45 | 5.14 | 87 | 6000 (1991) | 56 (2011) | 517 | 66 | 95 | 118 | 136 | 205 | 385 | 457 | 1150 | 2610 |
| 2026-04-13 18:45 | 5.15 | 89 | 6000 (1991) | 56 (2011) | 517 | 66 | 95 | 118 | 136 | 205 | 385 | 457 | 1150 | 2610 |
| 2026-04-13 17:45 | 5.14 | 87 | 6000 (1991) | 56 (2011) | 517 | 66 | 95 | 118 | 136 | 205 | 385 | 457 | 1150 | 2610 |
| 2026-04-13 16:45 | 5.15 | 89 | 6000 (1991) | 56 (2011) | 517 | 66 | 95 | 118 | 136 | 205 | 385 | 457 | 1150 | 2610 |
| 2026-04-13 15:45 | 5.15 | 89 | 6000 (1991) | 56 (2011) | 517 | 66 | 95 | 118 | 136 | 205 | 385 | 457 | 1150 | 2610 |
| 2026-04-13 14:45 | 5.16 | 91 | 6000 (1991) | 56 (2011) | 517 | 66 | 95 | 118 | 136 | 205 | 385 | 457 | 1150 | 2610 |
| 2026-04-13 13:45 | 5.18 | 95 | 6000 (1991) | 56 (2011) | 517 | 66 | 95 | 118 | 136 | 205 | 385 | 457 | 1150 | 2610 |
| 2026-04-13 12:45 | 5.17 | 93 | 6000 (1991) | 56 (2011) | 517 | 66 | 95 | 118 | 136 | 205 | 385 | 457 | 1150 | 2610 |
| 2026-04-13 11:45 | 5.18 | 95 | 6000 (1991) | 56 (2011) | 517 | 66 | 95 | 118 | 136 | 205 | 385 | 457 | 1150 | 2610 |
| 2026-04-13 10:45 | 5.18 | 95 | 6000 (1991) | 56 (2011) | 517 | 66 | 95 | 118 | 136 | 205 | 385 | 457 | 1150 | 2610 |
| 2026-04-13 09:45 | 5.19 | 97 | 6000 (1991) | 56 (2011) | 517 | 66 | 95 | 118 | 136 | 205 | 385 | 457 | 1150 | 2610 |
| 2026-04-13 08:45 | 5.21 | 101 | 6000 (1991) | 56 (2011) | 517 | 66 | 95 | 118 | 136 | 205 | 385 | 457 | 1150 | 2610 |
| 2026-04-13 07:45 | 5.20 | 99 | 6000 (1991) | 56 (2011) | 517 | 66 | 95 | 118 | 136 | 205 | 385 | 457 | 1150 | 2610 |
| 2026-04-13 06:45 | 5.19 | 97 | 6000 (1991) | 56 (2011) | 517 | 66 | 95 | 118 | 136 | 205 | 385 | 457 | 1150 | 2610 |
| 2026-04-13 05:45 | 5.18 | 95 | 6000 (1991) | 56 (2011) | 517 | 66 | 95 | 118 | 136 | 205 | 385 | 457 | 1150 | 2610 |
| 2026-04-13 04:45 | 5.18 | 95 | 6000 (1991) | 56 (2011) | 517 | 66 | 95 | 118 | 136 | 205 | 385 | 457 | 1150 | 2610 |
| 2026-04-13 03:45 | 5.18 | 95 | 6000 (1991) | 56 (2011) | 517 | 66 | 95 | 118 | 136 | 205 | 385 | 457 | 1150 | 2610 |
| 2026-04-13 02:45 | 5.18 | 95 | 6000 (1991) | 56 (2011) | 517 | 66 | 95 | 118 | 136 | 205 | 385 | 457 | 1150 | 2610 |
| 2026-04-13 01:45 | 5.17 | 93 | 6000 (1991) | 56 (2011) | 517 | 66 | 95 | 118 | 136 | 205 | 385 | 457 | 1150 | 2610 |
| 2026-04-13 00:45 | 5.18 | 95 | 6000 (1991) | 56 (2011) | 517 | 66 | 95 | 118 | 136 | 205 | 385 | 457 | 1150 | 2610 |
| 2026-04-12 23:45 | 5.19 | 97 | 6000 (1991) | 56 (2011) | 517 | 66 | 95 | 118 | 136 | 205 | 385 | 457 | 1150 | 2610 |
| 2026-04-12 22:45 | 5.16 | 91 | 1710 (2020) | 68 (2003) | 369 | 71 | 97 | 123 | 124 | 192 | 567 | 586 | 882 | 1520 |
| 2026-04-12 21:45 | 5.16 | 91 | 1710 (2020) | 68 (2003) | 369 | 71 | 97 | 123 | 124 | 192 | 567 | 586 | 882 | 1520 |
| 2026-04-12 20:45 | 5.15 | 89 | 1710 (2020) | 68 (2003) | 369 | 71 | 97 | 123 | 124 | 192 | 567 | 586 | 882 | 1520 |
| 2026-04-12 19:45 | 5.15 | 89 | 1710 (2020) | 68 (2003) | 369 | 71 | 97 | 123 | 124 | 192 | 567 | 586 | 882 | 1520 |
| 2026-04-12 18:45 | 5.15 | 89 | 1710 (2020) | 68 (2003) | 369 | 71 | 97 | 123 | 124 | 192 | 567 | 586 | 882 | 1520 |
| 2026-04-12 17:45 | 5.15 | 89 | 1710 (2020) | 68 (2003) | 369 | 71 | 97 | 123 | 124 | 192 | 567 | 586 | 882 | 1520 |
| 2026-04-12 16:45 | 5.14 | 87 | 1710 (2020) | 68 (2003) | 369 | 71 | 97 | 123 | 124 | 192 | 567 | 586 | 882 | 1520 |
| 2026-04-12 15:45 | 5.14 | 87 | 1710 (2020) | 68 (2003) | 369 | 71 | 97 | 123 | 124 | 192 | 567 | 586 | 882 | 1520 |
| 2026-04-12 14:45 | 5.16 | 91 | 1710 (2020) | 68 (2003) | 369 | 71 | 97 | 123 | 124 | 192 | 567 | 586 | 882 | 1520 |
| 2026-04-12 13:45 | 5.15 | 89 | 1710 (2020) | 68 (2003) | 369 | 71 | 97 | 123 | 124 | 192 | 567 | 586 | 882 | 1520 |
| 2026-04-12 12:45 | 5.15 | 89 | 1710 (2020) | 68 (2003) | 369 | 71 | 97 | 123 | 124 | 192 | 567 | 586 | 882 | 1520 |
| 2026-04-12 11:45 | 5.17 | 93 | 1710 (2020) | 68 (2003) | 369 | 71 | 97 | 123 | 124 | 192 | 567 | 586 | 882 | 1520 |
| 2026-04-12 10:45 | 5.14 | 87 | 1710 (2020) | 68 (2003) | 369 | 71 | 97 | 123 | 124 | 192 | 567 | 586 | 882 | 1520 |
| 2026-04-12 09:45 | 5.17 | 93 | 1710 (2020) | 68 (2003) | 369 | 71 | 97 | 123 | 124 | 192 | 567 | 586 | 882 | 1520 |
| 2026-04-12 08:45 | 5.18 | 95 | 1710 (2020) | 68 (2003) | 369 | 71 | 97 | 123 | 124 | 192 | 567 | 586 | 882 | 1520 |
| 2026-04-12 07:45 | 5.16 | 91 | 1710 (2020) | 68 (2003) | 369 | 71 | 97 | 123 | 124 | 192 | 567 | 586 | 882 | 1520 |
| 2026-04-12 06:45 | 5.17 | 93 | 1710 (2020) | 68 (2003) | 369 | 71 | 97 | 123 | 124 | 192 | 567 | 586 | 882 | 1520 |
| 2026-04-12 05:45 | 5.18 | 95 | 1710 (2020) | 68 (2003) | 369 | 71 | 97 | 123 | 124 | 192 | 567 | 586 | 882 | 1520 |
| 2026-04-12 04:45 | 5.17 | 93 | 1710 (2020) | 68 (2003) | 369 | 71 | 97 | 123 | 124 | 192 | 567 | 586 | 882 | 1520 |
| 2026-04-12 03:45 | 5.17 | 93 | 1710 (2020) | 68 (2003) | 369 | 71 | 97 | 123 | 124 | 192 | 567 | 586 | 882 | 1520 |
| 2026-04-12 02:45 | 5.17 | 93 | 1710 (2020) | 68 (2003) | 369 | 71 | 97 | 123 | 124 | 192 | 567 | 586 | 882 | 1520 |
| 2026-04-12 01:45 | 5.18 | 95 | 1710 (2020) | 68 (2003) | 369 | 71 | 97 | 123 | 124 | 192 | 567 | 586 | 882 | 1520 |
| 2026-04-12 00:45 | 5.18 | 95 | 1710 (2020) | 68 (2003) | 369 | 71 | 97 | 123 | 124 | 192 | 567 | 586 | 882 | 1520 |
| 2026-04-11 23:45 | 5.17 | 93 | 1710 (2020) | 68 (2003) | 369 | 71 | 97 | 123 | 124 | 192 | 567 | 586 | 882 | 1520 |
| 2026-04-11 22:45 | 5.18 | 95 | 1550 (1995) | 69 (2003) | 327 | 71 | 78 | 120 | 128 | 181 | 315 | 369 | 1090 | 1370 |
| 2026-04-11 21:45 | 5.17 | 93 | 1550 (1995) | 69 (2003) | 327 | 71 | 78 | 120 | 128 | 181 | 315 | 369 | 1090 | 1370 |
| 2026-04-11 20:45 | 5.17 | 93 | 1550 (1995) | 69 (2003) | 327 | 71 | 78 | 120 | 128 | 181 | 315 | 369 | 1090 | 1370 |
| 2026-04-11 19:45 | 5.17 | 93 | 1550 (1995) | 69 (2003) | 327 | 71 | 78 | 120 | 128 | 181 | 315 | 369 | 1090 | 1370 |
| 2026-04-11 18:45 | 5.17 | 93 | 1550 (1995) | 69 (2003) | 327 | 71 | 78 | 120 | 128 | 181 | 315 | 369 | 1090 | 1370 |
| 2026-04-11 17:45 | 5.19 | 97 | 1550 (1995) | 69 (2003) | 327 | 71 | 78 | 120 | 128 | 181 | 315 | 369 | 1090 | 1370 |
| 2026-04-11 16:45 | 5.19 | 97 | 1550 (1995) | 69 (2003) | 327 | 71 | 78 | 120 | 128 | 181 | 315 | 369 | 1090 | 1370 |
| 2026-04-11 15:45 | 5.18 | 95 | 1550 (1995) | 69 (2003) | 327 | 71 | 78 | 120 | 128 | 181 | 315 | 369 | 1090 | 1370 |
| 2026-04-11 14:45 | 5.19 | 97 | 1550 (1995) | 69 (2003) | 327 | 71 | 78 | 120 | 128 | 181 | 315 | 369 | 1090 | 1370 |
| 2026-04-11 12:45 | 5.20 | 99 | 1550 (1995) | 69 (2003) | 327 | 71 | 78 | 120 | 128 | 181 | 315 | 369 | 1090 | 1370 |
| 2026-04-11 11:45 | 5.20 | 99 | 1550 (1995) | 69 (2003) | 327 | 71 | 78 | 120 | 128 | 181 | 315 | 369 | 1090 | 1370 |
| 2026-04-11 10:45 | 5.21 | 101 | 1550 (1995) | 69 (2003) | 327 | 71 | 78 | 120 | 128 | 181 | 315 | 369 | 1090 | 1370 |
| 2026-04-11 09:45 | 5.22 | 103 | 1550 (1995) | 69 (2003) | 327 | 71 | 78 | 120 | 128 | 181 | 315 | 369 | 1090 | 1370 |
| 2026-04-11 08:45 | 5.22 | 103 | 1550 (1995) | 69 (2003) | 327 | 71 | 78 | 120 | 128 | 181 | 315 | 369 | 1090 | 1370 |
| 2026-04-11 07:45 | 5.22 | 103 | 1550 (1995) | 69 (2003) | 327 | 71 | 78 | 120 | 128 | 181 | 315 | 369 | 1090 | 1370 |
| 2026-04-11 06:45 | 5.23 | 105 | 1550 (1995) | 69 (2003) | 327 | 71 | 78 | 120 | 128 | 181 | 315 | 369 | 1090 | 1370 |
| 2026-04-11 05:45 | 5.22 | 103 | 1550 (1995) | 69 (2003) | 327 | 71 | 78 | 120 | 128 | 181 | 315 | 369 | 1090 | 1370 |
| 2026-04-11 04:45 | 5.22 | 103 | 1550 (1995) | 69 (2003) | 327 | 71 | 78 | 120 | 128 | 181 | 315 | 369 | 1090 | 1370 |
| 2026-04-11 03:45 | 5.23 | 105 | 1550 (1995) | 69 (2003) | 327 | 71 | 78 | 120 | 128 | 181 | 315 | 369 | 1090 | 1370 |
| 2026-04-11 02:45 | 5.23 | 105 | 1550 (1995) | 69 (2003) | 327 | 71 | 78 | 120 | 128 | 181 | 315 | 369 | 1090 | 1370 |
| 2026-04-11 01:45 | 5.24 | 107 | 1550 (1995) | 69 (2003) | 327 | 71 | 78 | 120 | 128 | 181 | 315 | 369 | 1090 | 1370 |
| 2026-04-11 00:45 | 5.24 | 107 | 1550 (1995) | 69 (2003) | 327 | 71 | 78 | 120 | 128 | 181 | 315 | 369 | 1090 | 1370 |
| 2026-04-10 23:45 | 5.24 | 107 | 1550 (1995) | 69 (2003) | 327 | 71 | 78 | 120 | 128 | 181 | 315 | 369 | 1090 | 1370 |
| 2026-04-10 22:45 | 5.24 | 107 | 1640 (2008) | 47 (2011) | 249 | 68 | 75 | 92 | 108 | 169 | 263 | 301 | 457 | 898 |
| 2026-04-10 21:45 | 5.25 | 109 | 1640 (2008) | 47 (2011) | 249 | 68 | 75 | 92 | 108 | 169 | 263 | 301 | 457 | 898 |
| 2026-04-10 20:45 | 5.24 | 107 | 1640 (2008) | 47 (2011) | 249 | 68 | 75 | 92 | 108 | 169 | 263 | 301 | 457 | 898 |
| 2026-04-10 19:45 | 5.24 | 107 | 1640 (2008) | 47 (2011) | 249 | 68 | 75 | 92 | 108 | 169 | 263 | 301 | 457 | 898 |
| 2026-04-10 18:45 | 5.24 | 107 | 1640 (2008) | 47 (2011) | 249 | 68 | 75 | 92 | 108 | 169 | 263 | 301 | 457 | 898 |
| 2026-04-10 17:45 | 5.25 | 109 | 1640 (2008) | 47 (2011) | 249 | 68 | 75 | 92 | 108 | 169 | 263 | 301 | 457 | 898 |
| 2026-04-10 16:45 | 5.24 | 107 | 1640 (2008) | 47 (2011) | 249 | 68 | 75 | 92 | 108 | 169 | 263 | 301 | 457 | 898 |
| 2026-04-10 15:45 | 5.25 | 109 | 1640 (2008) | 47 (2011) | 249 | 68 | 75 | 92 | 108 | 169 | 263 | 301 | 457 | 898 |
| 2026-04-10 14:45 | 5.24 | 107 | 1640 (2008) | 47 (2011) | 249 | 68 | 75 | 92 | 108 | 169 | 263 | 301 | 457 | 898 |
| 2026-04-10 13:45 | 5.24 | 107 | 1640 (2008) | 47 (2011) | 249 | 68 | 75 | 92 | 108 | 169 | 263 | 301 | 457 | 898 |
| 2026-04-10 12:45 | 5.24 | 107 | 1640 (2008) | 47 (2011) | 249 | 68 | 75 | 92 | 108 | 169 | 263 | 301 | 457 | 898 |
| 2026-04-10 11:45 | 5.24 | 107 | 1640 (2008) | 47 (2011) | 249 | 68 | 75 | 92 | 108 | 169 | 263 | 301 | 457 | 898 |
| 2026-04-10 10:45 | 5.25 | 109 | 1640 (2008) | 47 (2011) | 249 | 68 | 75 | 92 | 108 | 169 | 263 | 301 | 457 | 898 |
| 2026-04-10 09:45 | 5.25 | 109 | 1640 (2008) | 47 (2011) | 249 | 68 | 75 | 92 | 108 | 169 | 263 | 301 | 457 | 898 |
| 2026-04-10 08:45 | 5.25 | 109 | 1640 (2008) | 47 (2011) | 249 | 68 | 75 | 92 | 108 | 169 | 263 | 301 | 457 | 898 |
| 2026-04-10 07:45 | 5.27 | 113 | 1640 (2008) | 47 (2011) | 249 | 68 | 75 | 92 | 108 | 169 | 263 | 301 | 457 | 898 |
| 2026-04-10 06:45 | 5.26 | 111 | 1640 (2008) | 47 (2011) | 249 | 68 | 75 | 92 | 108 | 169 | 263 | 301 | 457 | 898 |
| 2026-04-10 05:45 | 5.27 | 113 | 1640 (2008) | 47 (2011) | 249 | 68 | 75 | 92 | 108 | 169 | 263 | 301 | 457 | 898 |
| 2026-04-10 04:45 | 5.27 | 113 | 1640 (2008) | 47 (2011) | 249 | 68 | 75 | 92 | 108 | 169 | 263 | 301 | 457 | 898 |
| 2026-04-10 03:45 | 5.28 | 115 | 1640 (2008) | 47 (2011) | 249 | 68 | 75 | 92 | 108 | 169 | 263 | 301 | 457 | 898 |
| 2026-04-10 02:45 | 5.27 | 113 | 1640 (2008) | 47 (2011) | 249 | 68 | 75 | 92 | 108 | 169 | 263 | 301 | 457 | 898 |
| 2026-04-10 01:45 | 5.27 | 113 | 1640 (2008) | 47 (2011) | 249 | 68 | 75 | 92 | 108 | 169 | 263 | 301 | 457 | 898 |
| 2026-04-10 00:45 | 5.28 | 115 | 1640 (2008) | 47 (2011) | 249 | 68 | 75 | 92 | 108 | 169 | 263 | 301 | 457 | 898 |
| 2026-04-09 23:45 | 5.29 | 117 | 1640 (2008) | 47 (2011) | 249 | 68 | 75 | 92 | 108 | 169 | 263 | 301 | 457 | 898 |
| 2026-04-09 22:45 | 5.28 | 115 | 3120 (2008) | 51 (2011) | 284 | 69 | 75 | 96 | 111 | 176 | 288 | 295 | 388 | 1090 |
| 2026-04-09 21:45 | 5.28 | 115 | 3120 (2008) | 51 (2011) | 284 | 69 | 75 | 96 | 111 | 176 | 288 | 295 | 388 | 1090 |
| 2026-04-09 20:45 | 5.28 | 115 | 3120 (2008) | 51 (2011) | 284 | 69 | 75 | 96 | 111 | 176 | 288 | 295 | 388 | 1090 |
| 2026-04-09 19:45 | 5.29 | 117 | 3120 (2008) | 51 (2011) | 284 | 69 | 75 | 96 | 111 | 176 | 288 | 295 | 388 | 1090 |
| 2026-04-09 18:45 | 5.29 | 117 | 3120 (2008) | 51 (2011) | 284 | 69 | 75 | 96 | 111 | 176 | 288 | 295 | 388 | 1090 |
| 2026-04-09 17:45 | 5.29 | 117 | 3120 (2008) | 51 (2011) | 284 | 69 | 75 | 96 | 111 | 176 | 288 | 295 | 388 | 1090 |
| 2026-04-09 16:45 | 5.29 | 117 | 3120 (2008) | 51 (2011) | 284 | 69 | 75 | 96 | 111 | 176 | 288 | 295 | 388 | 1090 |
| 2026-04-09 15:45 | 5.30 | 120 | 3120 (2008) | 51 (2011) | 284 | 69 | 75 | 96 | 111 | 176 | 288 | 295 | 388 | 1090 |
| 2026-04-09 14:45 | 5.31 | 122 | 3120 (2008) | 51 (2011) | 284 | 69 | 75 | 96 | 111 | 176 | 288 | 295 | 388 | 1090 |
| 2026-04-09 13:45 | 5.31 | 122 | 3120 (2008) | 51 (2011) | 284 | 69 | 75 | 96 | 111 | 176 | 288 | 295 | 388 | 1090 |
| 2026-04-09 12:45 | 5.30 | 120 | 3120 (2008) | 51 (2011) | 284 | 69 | 75 | 96 | 111 | 176 | 288 | 295 | 388 | 1090 |
| 2026-04-09 11:45 | 5.32 | 124 | 3120 (2008) | 51 (2011) | 284 | 69 | 75 | 96 | 111 | 176 | 288 | 295 | 388 | 1090 |
| 2026-04-09 10:45 | 5.31 | 122 | 3120 (2008) | 51 (2011) | 284 | 69 | 75 | 96 | 111 | 176 | 288 | 295 | 388 | 1090 |
| 2026-04-09 09:45 | 5.33 | 127 | 3120 (2008) | 51 (2011) | 284 | 69 | 75 | 96 | 111 | 176 | 288 | 295 | 388 | 1090 |
| 2026-04-09 08:45 | 5.33 | 127 | 3120 (2008) | 51 (2011) | 284 | 69 | 75 | 96 | 111 | 176 | 288 | 295 | 388 | 1090 |
| 2026-04-09 07:45 | 5.35 | 131 | 3120 (2008) | 51 (2011) | 284 | 69 | 75 | 96 | 111 | 176 | 288 | 295 | 388 | 1090 |
| 2026-04-09 06:45 | 5.34 | 129 | 3120 (2008) | 51 (2011) | 284 | 69 | 75 | 96 | 111 | 176 | 288 | 295 | 388 | 1090 |
| 2026-04-09 05:45 | 5.34 | 129 | 3120 (2008) | 51 (2011) | 284 | 69 | 75 | 96 | 111 | 176 | 288 | 295 | 388 | 1090 |
| 2026-04-09 04:45 | 5.35 | 131 | 3120 (2008) | 51 (2011) | 284 | 69 | 75 | 96 | 111 | 176 | 288 | 295 | 388 | 1090 |
| 2026-04-09 03:45 | 5.34 | 129 | 3120 (2008) | 51 (2011) | 284 | 69 | 75 | 96 | 111 | 176 | 288 | 295 | 388 | 1090 |
| 2026-04-09 02:45 | 5.35 | 131 | 3120 (2008) | 51 (2011) | 284 | 69 | 75 | 96 | 111 | 176 | 288 | 295 | 388 | 1090 |
| 2026-04-09 01:45 | 5.35 | 131 | 3120 (2008) | 51 (2011) | 284 | 69 | 75 | 96 | 111 | 176 | 288 | 295 | 388 | 1090 |
| 2026-04-09 00:45 | 5.36 | 134 | 3120 (2008) | 51 (2011) | 284 | 69 | 75 | 96 | 111 | 176 | 288 | 295 | 388 | 1090 |
| 2026-04-08 23:45 | 5.36 | 134 | 3120 (2008) | 51 (2011) | 284 | 69 | 75 | 96 | 111 | 176 | 288 | 295 | 388 | 1090 |
| 2026-04-08 22:45 | 5.36 | 134 | 2950 (2002) | 55 (2011) | 326 | 73 | 79 | 104 | 116 | 178 | 351 | 379 | 647 | 1480 |
| 2026-04-08 21:45 | 5.36 | 134 | 2950 (2002) | 55 (2011) | 326 | 73 | 79 | 104 | 116 | 178 | 351 | 379 | 647 | 1480 |
| 2026-04-08 20:45 | 5.37 | 136 | 2950 (2002) | 55 (2011) | 326 | 73 | 79 | 104 | 116 | 178 | 351 | 379 | 647 | 1480 |
| 2026-04-08 19:45 | 5.37 | 136 | 2950 (2002) | 55 (2011) | 326 | 73 | 79 | 104 | 116 | 178 | 351 | 379 | 647 | 1480 |
| 2026-04-08 18:45 | 5.36 | 134 | 2950 (2002) | 55 (2011) | 326 | 73 | 79 | 104 | 116 | 178 | 351 | 379 | 647 | 1480 |
| 2026-04-08 17:45 | 5.37 | 136 | 2950 (2002) | 55 (2011) | 326 | 73 | 79 | 104 | 116 | 178 | 351 | 379 | 647 | 1480 |
| 2026-04-08 16:45 | 5.38 | 139 | 2950 (2002) | 55 (2011) | 326 | 73 | 79 | 104 | 116 | 178 | 351 | 379 | 647 | 1480 |
| 2026-04-08 15:45 | 5.37 | 136 | 2950 (2002) | 55 (2011) | 326 | 73 | 79 | 104 | 116 | 178 | 351 | 379 | 647 | 1480 |
| 2026-04-08 14:45 | 5.40 | 144 | 2950 (2002) | 55 (2011) | 326 | 73 | 79 | 104 | 116 | 178 | 351 | 379 | 647 | 1480 |
| 2026-04-08 13:45 | 5.39 | 141 | 2950 (2002) | 55 (2011) | 326 | 73 | 79 | 104 | 116 | 178 | 351 | 379 | 647 | 1480 |
| 2026-04-08 12:45 | 5.39 | 141 | 2950 (2002) | 55 (2011) | 326 | 73 | 79 | 104 | 116 | 178 | 351 | 379 | 647 | 1480 |
| 2026-04-08 11:45 | 5.39 | 141 | 2950 (2002) | 55 (2011) | 326 | 73 | 79 | 104 | 116 | 178 | 351 | 379 | 647 | 1480 |
| 2026-04-08 10:45 | 5.39 | 141 | 2950 (2002) | 55 (2011) | 326 | 73 | 79 | 104 | 116 | 178 | 351 | 379 | 647 | 1480 |
| 2026-04-08 09:45 | 5.41 | 146 | 2950 (2002) | 55 (2011) | 326 | 73 | 79 | 104 | 116 | 178 | 351 | 379 | 647 | 1480 |
| 2026-04-08 08:45 | 5.41 | 146 | 2950 (2002) | 55 (2011) | 326 | 73 | 79 | 104 | 116 | 178 | 351 | 379 | 647 | 1480 |
| 2026-04-08 07:45 | 5.42 | 149 | 2950 (2002) | 55 (2011) | 326 | 73 | 79 | 104 | 116 | 178 | 351 | 379 | 647 | 1480 |
| 2026-04-08 06:45 | 5.44 | 154 | 2950 (2002) | 55 (2011) | 326 | 73 | 79 | 104 | 116 | 178 | 351 | 379 | 647 | 1480 |
| 2026-04-08 05:45 | 5.43 | 151 | 2950 (2002) | 55 (2011) | 326 | 73 | 79 | 104 | 116 | 178 | 351 | 379 | 647 | 1480 |
| 2026-04-08 04:45 | 5.44 | 154 | 2950 (2002) | 55 (2011) | 326 | 73 | 79 | 104 | 116 | 178 | 351 | 379 | 647 | 1480 |
| 2026-04-08 03:45 | 5.43 | 151 | 2950 (2002) | 55 (2011) | 326 | 73 | 79 | 104 | 116 | 178 | 351 | 379 | 647 | 1480 |
| 2026-04-08 02:45 | 5.43 | 151 | 2950 (2002) | 55 (2011) | 326 | 73 | 79 | 104 | 116 | 178 | 351 | 379 | 647 | 1480 |
| 2026-04-08 01:45 | 5.45 | 156 | 2950 (2002) | 55 (2011) | 326 | 73 | 79 | 104 | 116 | 178 | 351 | 379 | 647 | 1480 |
| 2026-04-08 00:45 | 5.44 | 154 | 2950 (2002) | 55 (2011) | 326 | 73 | 79 | 104 | 116 | 178 | 351 | 379 | 647 | 1480 |
| 2026-04-07 23:45 | 5.46 | 159 | 2950 (2002) | 55 (2011) | 326 | 73 | 79 | 104 | 116 | 178 | 351 | 379 | 647 | 1480 |
| 2026-04-07 22:45 | 5.45 | 156 | 1070 (2018) | 53 (2011) | 289 | 80 | 85 | 111 | 121 | 198 | 441 | 495 | 598 | 1050 |
| 2026-04-07 21:45 | 5.45 | 156 | 1070 (2018) | 53 (2011) | 289 | 80 | 85 | 111 | 121 | 198 | 441 | 495 | 598 | 1050 |
| 2026-04-07 20:45 | 5.46 | 159 | 1070 (2018) | 53 (2011) | 289 | 80 | 85 | 111 | 121 | 198 | 441 | 495 | 598 | 1050 |
| 2026-04-07 19:45 | 5.47 | 162 | 1070 (2018) | 53 (2011) | 289 | 80 | 85 | 111 | 121 | 198 | 441 | 495 | 598 | 1050 |
| 2026-04-07 18:45 | 5.47 | 162 | 1070 (2018) | 53 (2011) | 289 | 80 | 85 | 111 | 121 | 198 | 441 | 495 | 598 | 1050 |
| 2026-04-07 17:45 | 5.49 | 167 | 1070 (2018) | 53 (2011) | 289 | 80 | 85 | 111 | 121 | 198 | 441 | 495 | 598 | 1050 |
| 2026-04-07 16:45 | 5.48 | 165 | 1070 (2018) | 53 (2011) | 289 | 80 | 85 | 111 | 121 | 198 | 441 | 495 | 598 | 1050 |
| 2026-04-07 15:45 | 5.49 | 167 | 1070 (2018) | 53 (2011) | 289 | 80 | 85 | 111 | 121 | 198 | 441 | 495 | 598 | 1050 |
| 2026-04-07 14:45 | 5.51 | 173 | 1070 (2018) | 53 (2011) | 289 | 80 | 85 | 111 | 121 | 198 | 441 | 495 | 598 | 1050 |
| 2026-04-07 13:45 | 5.49 | 167 | 1070 (2018) | 53 (2011) | 289 | 80 | 85 | 111 | 121 | 198 | 441 | 495 | 598 | 1050 |
| 2026-04-07 12:45 | 5.51 | 173 | 1070 (2018) | 53 (2011) | 289 | 80 | 85 | 111 | 121 | 198 | 441 | 495 | 598 | 1050 |
| 2026-04-07 11:45 | 5.53 | 179 | 1070 (2018) | 53 (2011) | 289 | 80 | 85 | 111 | 121 | 198 | 441 | 495 | 598 | 1050 |
| 2026-04-07 10:45 | 5.53 | 179 | 1070 (2018) | 53 (2011) | 289 | 80 | 85 | 111 | 121 | 198 | 441 | 495 | 598 | 1050 |
| 2026-04-07 09:45 | 5.53 | 179 | 1070 (2018) | 53 (2011) | 289 | 80 | 85 | 111 | 121 | 198 | 441 | 495 | 598 | 1050 |
| 2026-04-07 08:45 | 5.53 | 179 | 1070 (2018) | 53 (2011) | 289 | 80 | 85 | 111 | 121 | 198 | 441 | 495 | 598 | 1050 |
| 2026-04-07 07:45 | 5.55 | 185 | 1070 (2018) | 53 (2011) | 289 | 80 | 85 | 111 | 121 | 198 | 441 | 495 | 598 | 1050 |
| 2026-04-07 06:45 | 5.53 | 179 | 1070 (2018) | 53 (2011) | 289 | 80 | 85 | 111 | 121 | 198 | 441 | 495 | 598 | 1050 |
| 2026-04-07 05:45 | 5.56 | 188 | 1070 (2018) | 53 (2011) | 289 | 80 | 85 | 111 | 121 | 198 | 441 | 495 | 598 | 1050 |
| 2026-04-07 04:45 | 5.57 | 191 | 1070 (2018) | 53 (2011) | 289 | 80 | 85 | 111 | 121 | 198 | 441 | 495 | 598 | 1050 |
| 2026-04-07 03:45 | 5.57 | 191 | 1070 (2018) | 53 (2011) | 289 | 80 | 85 | 111 | 121 | 198 | 441 | 495 | 598 | 1050 |
| 2026-04-07 02:45 | 5.58 | 194 | 1070 (2018) | 53 (2011) | 289 | 80 | 85 | 111 | 121 | 198 | 441 | 495 | 598 | 1050 |
| 2026-04-07 01:45 | 5.57 | 191 | 1070 (2018) | 53 (2011) | 289 | 80 | 85 | 111 | 121 | 198 | 441 | 495 | 598 | 1050 |
| 2026-04-07 00:45 | 5.57 | 191 | 1070 (2018) | 53 (2011) | 289 | 80 | 85 | 111 | 121 | 198 | 441 | 495 | 598 | 1050 |
| 2026-04-06 23:45 | 5.58 | 194 | 1070 (2018) | 53 (2011) | 289 | 80 | 85 | 111 | 121 | 198 | 441 | 495 | 598 | 1050 |
| 2026-04-06 22:45 | 5.61 | 203 | 1720 (2025) | 56 (2011) | 362 | 76 | 90 | 112 | 127 | 215 | 572 | 715 | 874 | 1130 |
| 2026-04-06 21:45 | 5.61 | 203 | 1720 (2025) | 56 (2011) | 362 | 76 | 90 | 112 | 127 | 215 | 572 | 715 | 874 | 1130 |
| 2026-04-06 20:45 | 5.62 | 206 | 1720 (2025) | 56 (2011) | 362 | 76 | 90 | 112 | 127 | 215 | 572 | 715 | 874 | 1130 |
| 2026-04-06 19:45 | 5.64 | 212 | 1720 (2025) | 56 (2011) | 362 | 76 | 90 | 112 | 127 | 215 | 572 | 715 | 874 | 1130 |
| 2026-04-06 18:45 | 5.64 | 212 | 1720 (2025) | 56 (2011) | 362 | 76 | 90 | 112 | 127 | 215 | 572 | 715 | 874 | 1130 |
| 2026-04-06 17:45 | 5.63 | 209 | 1720 (2025) | 56 (2011) | 362 | 76 | 90 | 112 | 127 | 215 | 572 | 715 | 874 | 1130 |
| 2026-04-06 16:45 | 5.64 | 212 | 1720 (2025) | 56 (2011) | 362 | 76 | 90 | 112 | 127 | 215 | 572 | 715 | 874 | 1130 |
| 2026-04-06 15:45 | 5.65 | 216 | 1720 (2025) | 56 (2011) | 362 | 76 | 90 | 112 | 127 | 215 | 572 | 715 | 874 | 1130 |
| 2026-04-06 14:45 | 5.67 | 222 | 1720 (2025) | 56 (2011) | 362 | 76 | 90 | 112 | 127 | 215 | 572 | 715 | 874 | 1130 |
| 2026-04-06 13:45 | 5.67 | 222 | 1720 (2025) | 56 (2011) | 362 | 76 | 90 | 112 | 127 | 215 | 572 | 715 | 874 | 1130 |
| 2026-04-06 12:45 | 5.69 | 229 | 1720 (2025) | 56 (2011) | 362 | 76 | 90 | 112 | 127 | 215 | 572 | 715 | 874 | 1130 |
| 2026-04-06 11:45 | 5.70 | 232 | 1720 (2025) | 56 (2011) | 362 | 76 | 90 | 112 | 127 | 215 | 572 | 715 | 874 | 1130 |
| 2026-04-06 10:45 | 5.70 | 232 | 1720 (2025) | 56 (2011) | 362 | 76 | 90 | 112 | 127 | 215 | 572 | 715 | 874 | 1130 |
| 2026-04-06 09:45 | 5.74 | 246 | 1720 (2025) | 56 (2011) | 362 | 76 | 90 | 112 | 127 | 215 | 572 | 715 | 874 | 1130 |
| 2026-04-06 08:45 | 5.74 | 246 | 1720 (2025) | 56 (2011) | 362 | 76 | 90 | 112 | 127 | 215 | 572 | 715 | 874 | 1130 |
| 2026-04-06 07:45 | 5.75 | 250 | 1720 (2025) | 56 (2011) | 362 | 76 | 90 | 112 | 127 | 215 | 572 | 715 | 874 | 1130 |
| 2026-04-06 06:45 | 5.75 | 250 | 1720 (2025) | 56 (2011) | 362 | 76 | 90 | 112 | 127 | 215 | 572 | 715 | 874 | 1130 |
| 2026-04-06 05:45 | 5.80 | 268 | 1720 (2025) | 56 (2011) | 362 | 76 | 90 | 112 | 127 | 215 | 572 | 715 | 874 | 1130 |
| 2026-04-06 04:45 | 5.79 | 264 | 1720 (2025) | 56 (2011) | 362 | 76 | 90 | 112 | 127 | 215 | 572 | 715 | 874 | 1130 |
| 2026-04-06 03:45 | 5.80 | 268 | 1720 (2025) | 56 (2011) | 362 | 76 | 90 | 112 | 127 | 215 | 572 | 715 | 874 | 1130 |
| 2026-04-06 02:45 | 5.80 | 268 | 1720 (2025) | 56 (2011) | 362 | 76 | 90 | 112 | 127 | 215 | 572 | 715 | 874 | 1130 |
| 2026-04-06 01:45 | 5.87 | 295 | 1720 (2025) | 56 (2011) | 362 | 76 | 90 | 112 | 127 | 215 | 572 | 715 | 874 | 1130 |
| 2026-04-06 00:45 | 5.85 | 287 | 1720 (2025) | 56 (2011) | 362 | 76 | 90 | 112 | 127 | 215 | 572 | 715 | 874 | 1130 |
| 2026-04-05 23:45 | 5.86 | 291 | 1720 (2025) | 56 (2011) | 362 | 76 | 90 | 112 | 127 | 215 | 572 | 715 | 874 | 1130 |
| 2026-04-05 22:45 | 5.84 | 283 | 10500 (2025) | 61 (2011) | 730 | 78 | 99 | 116 | 127 | 196 | 413 | 731 | 1580 | 5150 |
| 2026-04-05 21:45 | 5.86 | 291 | 10500 (2025) | 61 (2011) | 730 | 78 | 99 | 116 | 127 | 196 | 413 | 731 | 1580 | 5150 |
| 2026-04-05 20:45 | 5.87 | 295 | 10500 (2025) | 61 (2011) | 730 | 78 | 99 | 116 | 127 | 196 | 413 | 731 | 1580 | 5150 |
| 2026-04-05 19:45 | 5.86 | 291 | 10500 (2025) | 61 (2011) | 730 | 78 | 99 | 116 | 127 | 196 | 413 | 731 | 1580 | 5150 |
| 2026-04-05 18:45 | 5.87 | 295 | 10500 (2025) | 61 (2011) | 730 | 78 | 99 | 116 | 127 | 196 | 413 | 731 | 1580 | 5150 |
| 2026-04-05 17:45 | 5.90 | 307 | 10500 (2025) | 61 (2011) | 730 | 78 | 99 | 116 | 127 | 196 | 413 | 731 | 1580 | 5150 |
| 2026-04-05 16:45 | 5.91 | 311 | 10500 (2025) | 61 (2011) | 730 | 78 | 99 | 116 | 127 | 196 | 413 | 731 | 1580 | 5150 |
| 2026-04-05 15:45 | 5.91 | 311 | 10500 (2025) | 61 (2011) | 730 | 78 | 99 | 116 | 127 | 196 | 413 | 731 | 1580 | 5150 |
| 2026-04-05 14:45 | 5.94 | 324 | 10500 (2025) | 61 (2011) | 730 | 78 | 99 | 116 | 127 | 196 | 413 | 731 | 1580 | 5150 |
| 2026-04-05 13:45 | 5.96 | 332 | 10500 (2025) | 61 (2011) | 730 | 78 | 99 | 116 | 127 | 196 | 413 | 731 | 1580 | 5150 |
| 2026-04-05 12:45 | 6.00 | 350 | 10500 (2025) | 61 (2011) | 730 | 78 | 99 | 116 | 127 | 196 | 413 | 731 | 1580 | 5150 |
| 2026-04-05 11:45 | 6.02 | 358 | 10500 (2025) | 61 (2011) | 730 | 78 | 99 | 116 | 127 | 196 | 413 | 731 | 1580 | 5150 |
| 2026-04-05 10:45 | 6.07 | 381 | 10500 (2025) | 61 (2011) | 730 | 78 | 99 | 116 | 127 | 196 | 413 | 731 | 1580 | 5150 |
| 2026-04-05 09:45 | 6.12 | 405 | 10500 (2025) | 61 (2011) | 730 | 78 | 99 | 116 | 127 | 196 | 413 | 731 | 1580 | 5150 |
| 2026-04-05 08:45 | 6.16 | 425 | 10500 (2025) | 61 (2011) | 730 | 78 | 99 | 116 | 127 | 196 | 413 | 731 | 1580 | 5150 |
| 2026-04-05 07:45 | 6.19 | 440 | 10500 (2025) | 61 (2011) | 730 | 78 | 99 | 116 | 127 | 196 | 413 | 731 | 1580 | 5150 |
| 2026-04-05 06:45 | 6.19 | 440 | 10500 (2025) | 61 (2011) | 730 | 78 | 99 | 116 | 127 | 196 | 413 | 731 | 1580 | 5150 |
| 2026-04-05 05:45 | 6.24 | 466 | 10500 (2025) | 61 (2011) | 730 | 78 | 99 | 116 | 127 | 196 | 413 | 731 | 1580 | 5150 |
| 2026-04-05 04:45 | 6.29 | 493 | 10500 (2025) | 61 (2011) | 730 | 78 | 99 | 116 | 127 | 196 | 413 | 731 | 1580 | 5150 |
| 2026-04-05 03:45 | 6.32 | 510 | 10500 (2025) | 61 (2011) | 730 | 78 | 99 | 116 | 127 | 196 | 413 | 731 | 1580 | 5150 |
| 2026-04-05 02:45 | 6.35 | 527 | 10500 (2025) | 61 (2011) | 730 | 78 | 99 | 116 | 127 | 196 | 413 | 731 | 1580 | 5150 |
| 2026-04-05 01:45 | 6.43 | 574 | 10500 (2025) | 61 (2011) | 730 | 78 | 99 | 116 | 127 | 196 | 413 | 731 | 1580 | 5150 |
| 2026-04-05 00:45 | 6.50 | 617 | 10500 (2025) | 61 (2011) | 730 | 78 | 99 | 116 | 127 | 196 | 413 | 731 | 1580 | 5150 |
| 2026-04-04 23:45 | 6.54 | 643 | 10500 (2025) | 61 (2011) | 730 | 78 | 99 | 116 | 127 | 196 | 413 | 731 | 1580 | 5150 |
A total of 729 rows are displayed for years 1989 through 2025.